Wetterdaten: Montag, 14.09.2015
Datum Zeit Temp. Aussen Temp. o. S. +5cm Feuchte Auss BlattFeu 1 Luftdruck Regen Sonnenschein Regendauer Solar Windben Empfang
14.09.2015 00:00 17,2 C 17,2 C 15,6 C 95 % 0 lf 1002,1 hPa 0,0 l/m 0 min 0 min 0 W/m 12,6 km/h (3 Bft) 95,65 %
14.09.2015 00:02 17,2 C 17,2 C 15,6 C 95 % 1 lf 1002,0 hPa 0,0 l/m 0 min 0 min 0 W/m 12,6 km/h (3 Bft) 96,97 %
14.09.2015 00:05 17,2 C 17,2 C 15,6 C 95 % 0 lf 1002,0 hPa 0,0 l/m 0 min 0 min 0 W/m 14,6 km/h (3 Bft) 96,97 %
14.09.2015 00:09 17,2 C 17,2 C 15,6 C 95 % 0 lf 1002,0 hPa 0,0 l/m 0 min 0 min 0 W/m 14,6 km/h (3 Bft) 99,42 %
14.09.2015 00:12 17,2 C 17,2 C 15,6 C 95 % 0 lf 1001,9 hPa 0,0 l/m 0 min 0 min 0 W/m 12,6 km/h (3 Bft) 100,00 %
14.09.2015 00:14 17,2 C 17,2 C 15,6 C 95 % 0 lf 1001,9 hPa 0,0 l/m 0 min 0 min 0 W/m 18,8 km/h (3 Bft) 100,00 %
14.09.2015 00:16 17,2 C 17,2 C 15,6 C 95 % 0 lf 1001,9 hPa 0,0 l/m 0 min 2 min 0 W/m 16,7 km/h (3 Bft) 100,00 %
14.09.2015 00:18 17,2 C 17,2 C 16,1 C 95 % 1 lf 1001,9 hPa 0,0 l/m 0 min 2 min 0 W/m 18,8 km/h (3 Bft) 97,87 %
14.09.2015 00:20 17,2 C 17,2 C 16,1 C 95 % 0 lf 1001,9 hPa 0,0 l/m 0 min 2 min 0 W/m 16,7 km/h (3 Bft) 97,92 %
14.09.2015 00:22 17,2 C 17,2 C 15,6 C 95 % 3 lf 1001,9 hPa 0,0 l/m 0 min 2 min 0 W/m 16,7 km/h (3 Bft) 97,92 %
14.09.2015 00:24 17,2 C 16,7 C 15,6 C 95 % 2 lf 1001,9 hPa 0,0 l/m 0 min 2 min 0 W/m 14,6 km/h (3 Bft) 100,00 %
14.09.2015 00:26 17,2 C 16,7 C 15,6 C 95 % 1 lf 1001,9 hPa 0,0 l/m 0 min 2 min 0 W/m 18,8 km/h (3 Bft) 97,22 %
14.09.2015 00:28 17,2 C 16,7 C 15,6 C 95 % 1 lf 1002,0 hPa 0,0 l/m 0 min 2 min 0 W/m 14,6 km/h (3 Bft) 100,00 %
14.09.2015 00:30 17,2 C 16,7 C 15,6 C 95 % 0 lf 1001,9 hPa 0,0 l/m 0 min 2 min 0 W/m 14,6 km/h (3 Bft) 100,00 %
14.09.2015 00:32 17,2 C 16,7 C 15,6 C 95 % 1 lf 1002,0 hPa 0,0 l/m 0 min 2 min 0 W/m 14,6 km/h (3 Bft) 100,00 %
14.09.2015 00:34 17,2 C 16,7 C 15,0 C 95 % 2 lf 1002,0 hPa 0,0 l/m 0 min 2 min 0 W/m 14,6 km/h (3 Bft) 97,87 %
14.09.2015 00:36 17,2 C 16,7 C 15,0 C 95 % 1 lf 1002,0 hPa 0,0 l/m 0 min 2 min 0 W/m 14,6 km/h (3 Bft) 97,87 %
14.09.2015 00:38 17,2 C 16,7 C 15,0 C 95 % 1 lf 1002,0 hPa 0,0 l/m 0 min 2 min 0 W/m 14,6 km/h (3 Bft) 97,92 %
14.09.2015 00:40 17,2 C 16,7 C 15,0 C 95 % 1 lf 1002,0 hPa 0,0 l/m 0 min 2 min 0 W/m 23,0 km/h (4 Bft) 100,00 %
14.09.2015 00:42 17,2 C 16,7 C 15,0 C 95 % 3 lf 1002,0 hPa 0,0 l/m 0 min 2 min 0 W/m 20,9 km/h (4 Bft) 100,00 %
14.09.2015 00:44 17,2 C 16,7 C 15,0 C 95 % 3 lf 1002,1 hPa 0,0 l/m 0 min 2 min 0 W/m 16,7 km/h (3 Bft) 97,92 %
14.09.2015 00:46 17,2 C 16,7 C 15,0 C 95 % 3 lf 1002,1 hPa 0,2 l/m 0 min 2 min 0 W/m 23,0 km/h (4 Bft) 95,74 %
14.09.2015 00:48 17,2 C 16,1 C 15,0 C 95 % 3 lf 1002,1 hPa 0,0 l/m 0 min 2 min 0 W/m 14,6 km/h (3 Bft) 100,00 %
14.09.2015 00:50 17,2 C 16,1 C 15,0 C 95 % 13 lf 1002,0 hPa 0,0 l/m 0 min 2 min 0 W/m 12,6 km/h (3 Bft) 95,74 %
14.09.2015 00:52 17,2 C 16,1 C 15,0 C 95 % 14 lf 1002,1 hPa 0,0 l/m 0 min 2 min 0 W/m 16,7 km/h (3 Bft) 100,00 %
14.09.2015 00:54 17,1 C 16,1 C 15,0 C 95 % 14 lf 1002,0 hPa 0,2 l/m 0 min 2 min 0 W/m 14,6 km/h (3 Bft) 97,87 %
14.09.2015 00:56 17,1 C 16,1 C 15,0 C 95 % 14 lf 1002,0 hPa 0,0 l/m 0 min 2 min 0 W/m 14,6 km/h (3 Bft) 100,00 %
14.09.2015 00:58 17,1 C 16,1 C 15,0 C 95 % 15 lf 1002,1 hPa 0,0 l/m 0 min 2 min 0 W/m 12,6 km/h (3 Bft) 97,87 %
14.09.2015 01:00 17,1 C 16,1 C 15,0 C 95 % 15 lf 1002,1 hPa 0,2 l/m 0 min 2 min 0 W/m 12,6 km/h (3 Bft) 97,87 %
14.09.2015 01:02 17,1 C 16,1 C 15,0 C 95 % 15 lf 1002,0 hPa 0,0 l/m 0 min 2 min 0 W/m 16,7 km/h (3 Bft) 93,62 %
14.09.2015 01:04 17,1 C 16,1 C 15,0 C 95 % 15 lf 1002,1 hPa 0,0 l/m 0 min 2 min 0 W/m 14,6 km/h (3 Bft) 97,87 %
14.09.2015 01:06 17,1 C 16,1 C 15,0 C 95 % 15 lf 1002,0 hPa 0,0 l/m 0 min 2 min 0 W/m 14,6 km/h (3 Bft) 95,74 %
14.09.2015 01:08 17,1 C 16,1 C 15,0 C 95 % 15 lf 1002,0 hPa 0,0 l/m 0 min 2 min 0 W/m 16,7 km/h (3 Bft) 97,83 %
14.09.2015 01:10 17,1 C 16,1 C 15,0 C 95 % 15 lf 1002,0 hPa 0,0 l/m 0 min 2 min 0 W/m 14,6 km/h (3 Bft) 95,74 %
14.09.2015 01:12 17,0 C 16,1 C 15,0 C 95 % 15 lf 1002,0 hPa 0,0 l/m 0 min 2 min 0 W/m 12,6 km/h (3 Bft) 95,74 %
14.09.2015 01:14 17,0 C 16,1 C 15,0 C 95 % 15 lf 1001,8 hPa 0,2 l/m 0 min 2 min 0 W/m 12,6 km/h (3 Bft) 93,62 %
14.09.2015 01:16 17,0 C 16,1 C 15,0 C 95 % 15 lf 1001,8 hPa 0,0 l/m 0 min 2 min 0 W/m 12,6 km/h (3 Bft) 97,87 %
14.09.2015 01:18 17,0 C 16,1 C 15,0 C 96 % 15 lf 1001,8 hPa 0,0 l/m 0 min 2 min 0 W/m 12,6 km/h (3 Bft) 95,74 %
14.09.2015 01:20 17,0 C 16,1 C 15,0 C 96 % 15 lf 1001,8 hPa 0,0 l/m 0 min 2 min 0 W/m 10,5 km/h (2 Bft) 97,83 %
14.09.2015 01:22 17,0 C 16,1 C 15,0 C 96 % 15 lf 1001,7 hPa 0,0 l/m 0 min 2 min 0 W/m 12,6 km/h (3 Bft) 95,74 %
14.09.2015 01:24 16,9 C 16,1 C 15,0 C 96 % 15 lf 1001,7 hPa 0,0 l/m 0 min 2 min 0 W/m 12,6 km/h (3 Bft) 95,74 %
14.09.2015 01:26 16,9 C 16,1 C 15,0 C 96 % 15 lf 1001,7 hPa 0,0 l/m 0 min 2 min 0 W/m 12,6 km/h (3 Bft) 95,74 %
14.09.2015 01:28 16,9 C 16,1 C 15,0 C 96 % 15 lf 1001,7 hPa 0,0 l/m 0 min 2 min 0 W/m 14,6 km/h (3 Bft) 97,87 %
14.09.2015 01:30 16,9 C 16,1 C 15,0 C 96 % 15 lf 1001,7 hPa 0,0 l/m 0 min 2 min 0 W/m 10,5 km/h (2 Bft) 93,62 %
14.09.2015 01:32 16,9 C 16,1 C 15,0 C 96 % 15 lf 1001,7 hPa 0,0 l/m 0 min 2 min 0 W/m 14,6 km/h (3 Bft) 93,48 %
14.09.2015 01:34 16,9 C 16,1 C 15,0 C 96 % 15 lf 1001,7 hPa 0,2 l/m 0 min 2 min 0 W/m 12,6 km/h (3 Bft) 93,62 %
14.09.2015 01:36 16,9 C 16,1 C 15,0 C 96 % 15 lf 1001,7 hPa 0,0 l/m 0 min 2 min 0 W/m 6,3 km/h (2 Bft) 93,62 %
14.09.2015 01:38 16,8 C 16,1 C 15,0 C 96 % 15 lf 1001,8 hPa 0,0 l/m 0 min 2 min 0 W/m 10,5 km/h (2 Bft) 93,62 %
14.09.2015 01:40 16,8 C 16,1 C 15,0 C 96 % 15 lf 1001,8 hPa 0,0 l/m 0 min 2 min 0 W/m 10,5 km/h (2 Bft) 95,74 %
14.09.2015 01:42 16,8 C 16,1 C 15,0 C 96 % 15 lf 1001,8 hPa 0,0 l/m 0 min 2 min 0 W/m 10,5 km/h (2 Bft) 95,74 %
14.09.2015 01:44 16,8 C 16,1 C 15,0 C 96 % 15 lf 1001,7 hPa 0,0 l/m 0 min 2 min 0 W/m 8,4 km/h (2 Bft) 94,34 %
14.09.2015 01:46 16,8 C 16,1 C 15,0 C 96 % 15 lf 1001,7 hPa 0,0 l/m 0 min 2 min 0 W/m 10,5 km/h (2 Bft) 95,74 %
14.09.2015 01:48 16,8 C 16,1 C 15,0 C 96 % 15 lf 1001,7 hPa 0,0 l/m 0 min 2 min 0 W/m 10,5 km/h (2 Bft) 95,74 %
14.09.2015 01:50 16,8 C 16,1 C 15,0 C 96 % 15 lf 1001,7 hPa 0,0 l/m 0 min 2 min 0 W/m 10,5 km/h (2 Bft) 94,44 %
14.09.2015 01:52 16,8 C 16,1 C 15,0 C 96 % 15 lf 1001,7 hPa 0,0 l/m 0 min 2 min 0 W/m 12,6 km/h (3 Bft) 93,48 %
14.09.2015 01:54 16,7 C 16,1 C 15,0 C 96 % 15 lf 1001,7 hPa 0,0 l/m 0 min 2 min 0 W/m 12,6 km/h (3 Bft) 93,62 %
14.09.2015 01:56 16,7 C 16,1 C 15,0 C 96 % 15 lf 1001,7 hPa 0,0 l/m 0 min 2 min 0 W/m 10,5 km/h (2 Bft) 97,87 %
14.09.2015 01:58 16,7 C 16,1 C 15,0 C 96 % 15 lf 1001,6 hPa 0,0 l/m 0 min 2 min 0 W/m 12,6 km/h (3 Bft) 97,87 %
14.09.2015 02:00 16,7 C 16,1 C 15,0 C 96 % 15 lf 1001,6 hPa 0,0 l/m 0 min 2 min 0 W/m 8,4 km/h (2 Bft) 100,00 %
14.09.2015 02:02 16,7 C 16,1 C 15,0 C 96 % 15 lf 1001,6 hPa 0,2 l/m 0 min 2 min 0 W/m 8,4 km/h (2 Bft) 95,74 %
14.09.2015 02:04 16,7 C 16,1 C 15,0 C 96 % 15 lf 1001,6 hPa 0,0 l/m 0 min 2 min 0 W/m 10,5 km/h (2 Bft) 95,65 %
14.09.2015 02:06 16,7 C 16,1 C 15,0 C 96 % 15 lf 1001,6 hPa 0,0 l/m 0 min 2 min 0 W/m 6,3 km/h (2 Bft) 95,74 %
14.09.2015 02:08 16,7 C 16,1 C 15,0 C 96 % 15 lf 1001,6 hPa 0,0 l/m 0 min 2 min 0 W/m 10,5 km/h (2 Bft) 93,75 %
14.09.2015 02:10 16,7 C 16,1 C 15,0 C 96 % 15 lf 1001,6 hPa 0,0 l/m 0 min 2 min 0 W/m 6,3 km/h (2 Bft) 93,75 %
14.09.2015 02:12 16,7 C 16,1 C 15,0 C 97 % 15 lf 1001,6 hPa 0,0 l/m 0 min 2 min 0 W/m 4,2 km/h (1 Bft) 93,62 %
14.09.2015 02:14 16,7 C 16,1 C 15,0 C 97 % 15 lf 1001,5 hPa 0,2 l/m 0 min 2 min 0 W/m 6,3 km/h (2 Bft) 91,49 %
14.09.2015 02:16 16,6 C 16,1 C 15,0 C 97 % 15 lf 1001,5 hPa 0,0 l/m 0 min 2 min 0 W/m 8,4 km/h (2 Bft) 95,65 %
14.09.2015 02:18 16,6 C 16,1 C 15,0 C 97 % 15 lf 1001,6 hPa 0,0 l/m 0 min 2 min 0 W/m 6,3 km/h (2 Bft) 95,74 %
14.09.2015 02:20 16,6 C 16,1 C 15,0 C 97 % 15 lf 1001,5 hPa 0,0 l/m 0 min 2 min 0 W/m 6,3 km/h (2 Bft) 93,62 %
14.09.2015 02:22 16,6 C 16,1 C 15,0 C 97 % 15 lf 1001,5 hPa 0,0 l/m 0 min 2 min 0 W/m 12,6 km/h (3 Bft) 95,74 %
14.09.2015 02:24 16,6 C 16,1 C 15,0 C 97 % 15 lf 1001,5 hPa 0,0 l/m 0 min 2 min 0 W/m 6,3 km/h (2 Bft) 95,74 %
14.09.2015 02:26 16,6 C 16,1 C 15,0 C 97 % 15 lf 1001,4 hPa 0,0 l/m 0 min 2 min 0 W/m 10,5 km/h (2 Bft) 95,74 %
14.09.2015 02:28 16,6 C 16,1 C 15,0 C 97 % 15 lf 1001,4 hPa 0,0 l/m 0 min 2 min 0 W/m 12,6 km/h (3 Bft) 95,65 %
14.09.2015 02:30 16,6 C 16,1 C 15,0 C 97 % 15 lf 1001,4 hPa 0,0 l/m 0 min 2 min 0 W/m 6,3 km/h (2 Bft) 95,74 %
14.09.2015 02:32 16,6 C 16,1 C 15,0 C 97 % 15 lf 1001,4 hPa 0,0 l/m 0 min 2 min 0 W/m 6,3 km/h (2 Bft) 95,74 %
14.09.2015 02:34 16,5 C 16,1 C 15,0 C 97 % 15 lf 1001,4 hPa 0,0 l/m 0 min 2 min 0 W/m 10,5 km/h (2 Bft) 93,62 %
14.09.2015 02:36 16,5 C 16,1 C 15,0 C 97 % 15 lf 1001,3 hPa 0,0 l/m 0 min 0 min 0 W/m 8,4 km/h (2 Bft) 97,87 %
14.09.2015 02:38 16,5 C 16,1 C 15,0 C 97 % 15 lf 1001,3 hPa 0,0 l/m 0 min 0 min 0 W/m 10,5 km/h (2 Bft) 93,62 %
14.09.2015 02:40 16,5 C 16,1 C 15,0 C 97 % 15 lf 1001,3 hPa 0,0 l/m 0 min 2 min 0 W/m 10,5 km/h (2 Bft) 89,58 %
14.09.2015 02:42 16,5 C 16,1 C 15,0 C 97 % 15 lf 1001,3 hPa 0,0 l/m 0 min 0 min 0 W/m 8,4 km/h (2 Bft) 95,65 %
14.09.2015 02:44 16,5 C 16,1 C 15,0 C 97 % 15 lf 1001,4 hPa 0,0 l/m 0 min 0 min 0 W/m 10,5 km/h (2 Bft) 95,74 %
14.09.2015 02:46 16,4 C 16,1 C 15,0 C 97 % 15 lf 1001,3 hPa 0,0 l/m 0 min 2 min 0 W/m 10,5 km/h (2 Bft) 95,74 %
14.09.2015 02:48 16,4 C 16,1 C 15,0 C 97 % 15 lf 1001,3 hPa 0,0 l/m 0 min 0 min 0 W/m 6,3 km/h (2 Bft) 95,74 %
14.09.2015 02:50 16,4 C 16,1 C 15,0 C 97 % 15 lf 1001,4 hPa 0,0 l/m 0 min 0 min 0 W/m 8,4 km/h (2 Bft) 95,74 %
14.09.2015 02:52 16,4 C 16,1 C 15,0 C 97 % 15 lf 1001,4 hPa 0,0 l/m 0 min 0 min 0 W/m 14,6 km/h (3 Bft) 97,87 %
14.09.2015 02:54 16,4 C 16,1 C 15,0 C 97 % 15 lf 1001,3 hPa 0,0 l/m 0 min 0 min 0 W/m 10,5 km/h (2 Bft) 97,83 %
14.09.2015 02:56 16,4 C 16,1 C 15,0 C 97 % 15 lf 1001,3 hPa 0,0 l/m 0 min 0 min 0 W/m 8,4 km/h (2 Bft) 97,87 %
14.09.2015 02:58 16,4 C 16,1 C 15,0 C 97 % 15 lf 1001,3 hPa 0,0 l/m 0 min 2 min 0 W/m 10,5 km/h (2 Bft) 97,87 %
14.09.2015 03:00 16,4 C 16,1 C 15,0 C 97 % 15 lf 1001,4 hPa 0,0 l/m 0 min 2 min 0 W/m 10,5 km/h (2 Bft) 95,74 %
14.09.2015 03:02 16,4 C 16,1 C 15,0 C 97 % 15 lf 1001,4 hPa 0,0 l/m 0 min 2 min 0 W/m 8,4 km/h (2 Bft) 100,00 %
14.09.2015 03:04 16,4 C 16,1 C 15,0 C 97 % 15 lf 1001,4 hPa 0,0 l/m 0 min 2 min 0 W/m 8,4 km/h (2 Bft) 100,00 %
14.09.2015 03:06 16,4 C 16,1 C 15,0 C 97 % 15 lf 1001,4 hPa 0,0 l/m 0 min 2 min 0 W/m 8,4 km/h (2 Bft) 97,83 %
14.09.2015 03:08 16,4 C 16,1 C 15,0 C 97 % 15 lf 1001,4 hPa 0,0 l/m 0 min 2 min 0 W/m 8,4 km/h (2 Bft) 97,87 %
14.09.2015 03:10 16,4 C 16,1 C 15,0 C 97 % 15 lf 1001,4 hPa 0,0 l/m 0 min 2 min 0 W/m 8,4 km/h (2 Bft) 95,74 %
14.09.2015 03:12 16,3 C 16,1 C 15,0 C 97 % 15 lf 1001,4 hPa 0,0 l/m 0 min 2 min 0 W/m 6,3 km/h (2 Bft) 100,00 %
14.09.2015 03:14 16,3 C 16,1 C 15,0 C 97 % 15 lf 1001,4 hPa 0,0 l/m 0 min 2 min 0 W/m 8,4 km/h (2 Bft) 91,49 %
14.09.2015 03:16 16,3 C 16,1 C 15,0 C 97 % 15 lf 1001,4 hPa 0,0 l/m 0 min 2 min 0 W/m 12,6 km/h (3 Bft) 97,87 %
14.09.2015 03:18 16,3 C 16,1 C 15,0 C 97 % 15 lf 1001,4 hPa 0,0 l/m 0 min 2 min 0 W/m 8,4 km/h (2 Bft) 97,83 %
14.09.2015 03:20 16,3 C 16,1 C 15,0 C 97 % 15 lf 1001,4 hPa 0,0 l/m 0 min 2 min 0 W/m 10,5 km/h (2 Bft) 97,87 %
14.09.2015 03:22 16,3 C 16,1 C 14,4 C 97 % 15 lf 1001,4 hPa 0,2 l/m 0 min 2 min 0 W/m 10,5 km/h (2 Bft) 93,62 %
14.09.2015 03:24 16,3 C 16,1 C 15,0 C 97 % 15 lf 1001,3 hPa 0,0 l/m 0 min 2 min 0 W/m 10,5 km/h (2 Bft) 97,87 %
14.09.2015 03:26 16,3 C 16,1 C 15,0 C 97 % 15 lf 1001,4 hPa 0,0 l/m 0 min 2 min 0 W/m 10,5 km/h (2 Bft) 97,87 %
14.09.2015 03:28 16,3 C 16,1 C 14,4 C 97 % 15 lf 1001,4 hPa 0,0 l/m 0 min 2 min 0 W/m 8,4 km/h (2 Bft) 95,65 %
14.09.2015 03:30 16,3 C 16,1 C 14,4 C 97 % 15 lf 1001,3 hPa 0,0 l/m 0 min 2 min 0 W/m 8,4 km/h (2 Bft) 93,62 %
14.09.2015 03:32 16,3 C 15,6 C 14,4 C 97 % 15 lf 1001,3 hPa 0,0 l/m 0 min 2 min 0 W/m 8,4 km/h (2 Bft) 96,30 %
14.09.2015 03:34 16,3 C 15,6 C 14,4 C 97 % 15 lf 1001,3 hPa 0,0 l/m 0 min 2 min 0 W/m 10,5 km/h (2 Bft) 95,65 %
14.09.2015 03:36 16,3 C 15,6 C 14,4 C 97 % 15 lf 1001,3 hPa 0,0 l/m 0 min 2 min 0 W/m 8,4 km/h (2 Bft) 100,00 %
14.09.2015 03:38 16,3 C 15,6 C 14,4 C 97 % 15 lf 1001,3 hPa 0,0 l/m 0 min 2 min 0 W/m 8,4 km/h (2 Bft) 97,83 %
14.09.2015 03:40 16,3 C 15,6 C 14,4 C 97 % 15 lf 1001,4 hPa 0,0 l/m 0 min 0 min 0 W/m 10,5 km/h (2 Bft) 93,75 %
14.09.2015 03:42 16,3 C 15,6 C 14,4 C 97 % 15 lf 1001,4 hPa 0,0 l/m 0 min 0 min 0 W/m 8,4 km/h (2 Bft) 97,87 %
14.09.2015 03:44 16,3 C 16,1 C 14,4 C 97 % 15 lf 1001,4 hPa 0,0 l/m 0 min 2 min 0 W/m 10,5 km/h (2 Bft) 97,87 %
14.09.2015 03:46 16,3 C 16,1 C 14,4 C 98 % 15 lf 1001,3 hPa 0,0 l/m 0 min 2 min 0 W/m 10,5 km/h (2 Bft) 95,74 %
14.09.2015 03:48 16,2 C 16,1 C 14,4 C 98 % 15 lf 1001,4 hPa 0,0 l/m 0 min 0 min 0 W/m 8,4 km/h (2 Bft) 95,74 %
14.09.2015 03:50 16,2 C 16,1 C 14,4 C 98 % 15 lf 1001,3 hPa 0,0 l/m 0 min 2 min 0 W/m 10,5 km/h (2 Bft) 100,00 %
14.09.2015 03:52 16,2 C 16,1 C 14,4 C 98 % 15 lf 1001,3 hPa 0,0 l/m 0 min 2 min 0 W/m 4,2 km/h (1 Bft) 100,00 %
14.09.2015 03:54 16,3 C 16,1 C 14,4 C 98 % 15 lf 1001,2 hPa 0,0 l/m 0 min 2 min 0 W/m 4,2 km/h (1 Bft) 100,00 %
14.09.2015 03:56 16,3 C 16,1 C 14,4 C 98 % 15 lf 1001,2 hPa 0,0 l/m 0 min 2 min 0 W/m 8,4 km/h (2 Bft) 100,00 %
14.09.2015 03:58 16,2 C 15,6 C 14,4 C 97 % 15 lf 1001,2 hPa 0,0 l/m 0 min 0 min 0 W/m 10,5 km/h (2 Bft) 97,87 %
14.09.2015 04:00 16,2 C 15,6 C 14,4 C 97 % 15 lf 1001,2 hPa 0,0 l/m 0 min 2 min 0 W/m 8,4 km/h (2 Bft) 100,00 %
14.09.2015 04:05 16,2 C 15,6 C 14,4 C 98 % 15 lf 1001,0 hPa 0,0 l/m 0 min 2 min 0 W/m 8,4 km/h (2 Bft) 96,67 %
14.09.2015 04:06 16,2 C 15,6 C 14,4 C 98 % 15 lf 1001,0 hPa 0,0 l/m 0 min 1 min 0 W/m 6,3 km/h (2 Bft) 100,00 %
14.09.2015 04:08 16,2 C 15,6 C 14,4 C 98 % 15 lf 1001,1 hPa 0,0 l/m 0 min 0 min 0 W/m 6,3 km/h (2 Bft) 100,00 %
14.09.2015 04:10 16,2 C 15,6 C 14,4 C 98 % 15 lf 1001,0 hPa 0,0 l/m 0 min 0 min 0 W/m 6,3 km/h (2 Bft) 100,00 %
14.09.2015 04:12 16,2 C 15,6 C 14,4 C 98 % 15 lf 1001,1 hPa 0,0 l/m 0 min 2 min 0 W/m 6,3 km/h (2 Bft) 100,00 %
14.09.2015 04:14 16,2 C 15,6 C 14,4 C 98 % 15 lf 1001,0 hPa 0,0 l/m 0 min 2 min 0 W/m 8,4 km/h (2 Bft) 100,00 %
14.09.2015 04:16 16,2 C 15,6 C 14,4 C 98 % 15 lf 1001,1 hPa 0,0 l/m 0 min 2 min 0 W/m 8,4 km/h (2 Bft) 100,00 %
14.09.2015 04:18 16,2 C 15,6 C 14,4 C 98 % 15 lf 1001,1 hPa 0,2 l/m 0 min 2 min 0 W/m 10,5 km/h (2 Bft) 97,87 %
14.09.2015 04:20 16,2 C 15,6 C 14,4 C 98 % 15 lf 1001,0 hPa 0,2 l/m 0 min 2 min 0 W/m 10,5 km/h (2 Bft) 97,87 %
14.09.2015 04:22 16,2 C 15,6 C 14,4 C 98 % 15 lf 1001,0 hPa 0,0 l/m 0 min 2 min 0 W/m 8,4 km/h (2 Bft) 100,00 %
14.09.2015 04:24 16,2 C 15,6 C 14,4 C 98 % 15 lf 1001,0 hPa 1,2 l/m 0 min 2 min 0 W/m 12,6 km/h (3 Bft) 97,87 %
14.09.2015 04:26 16,2 C 16,1 C 14,4 C 98 % 15 lf 1001,2 hPa 0,2 l/m 0 min 2 min 0 W/m 10,5 km/h (2 Bft) 100,00 %
14.09.2015 04:28 16,2 C 16,1 C 14,4 C 98 % 15 lf 1001,0 hPa 0,4 l/m 0 min 2 min 0 W/m 8,4 km/h (2 Bft) 100,00 %
14.09.2015 04:30 16,2 C 15,6 C 14,4 C 98 % 15 lf 1001,0 hPa 0,4 l/m 0 min 2 min 0 W/m 10,5 km/h (2 Bft) 100,00 %
14.09.2015 04:32 16,2 C 16,1 C 14,4 C 98 % 15 lf 1000,9 hPa 0,0 l/m 0 min 2 min 0 W/m 8,4 km/h (2 Bft) 97,87 %
14.09.2015 04:34 16,2 C 16,1 C 14,4 C 98 % 15 lf 1001,0 hPa 0,0 l/m 0 min 2 min 0 W/m 8,4 km/h (2 Bft) 100,00 %
14.09.2015 04:36 16,2 C 16,1 C 15,0 C 98 % 15 lf 1000,9 hPa 0,2 l/m 0 min 2 min 0 W/m 10,5 km/h (2 Bft) 97,87 %
14.09.2015 04:38 16,2 C 16,1 C 15,0 C 98 % 15 lf 1000,9 hPa 0,0 l/m 0 min 2 min 0 W/m 6,3 km/h (2 Bft) 97,87 %
14.09.2015 04:40 16,2 C 16,1 C 15,0 C 98 % 15 lf 1001,0 hPa 0,6 l/m 0 min 2 min 0 W/m 10,5 km/h (2 Bft) 97,62 %
14.09.2015 04:42 16,2 C 16,1 C 15,0 C 98 % 15 lf 1000,9 hPa 0,4 l/m 0 min 2 min 0 W/m 12,6 km/h (3 Bft) 97,92 %
14.09.2015 04:44 16,2 C 16,1 C 15,0 C 98 % 15 lf 1000,9 hPa 0,4 l/m 0 min 2 min 0 W/m 8,4 km/h (2 Bft) 95,74 %
14.09.2015 04:46 16,2 C 16,1 C 15,0 C 98 % 15 lf 1000,9 hPa 0,4 l/m 0 min 2 min 0 W/m 8,4 km/h (2 Bft) 97,87 %
14.09.2015 04:48 16,2 C 16,1 C 14,4 C 98 % 15 lf 1000,9 hPa 1,2 l/m 0 min 2 min 0 W/m 6,3 km/h (2 Bft) 95,65 %
14.09.2015 04:50 16,2 C 16,1 C 14,4 C 98 % 15 lf 1000,9 hPa 0,2 l/m 0 min 2 min 0 W/m 6,3 km/h (2 Bft) 91,67 %
14.09.2015 04:52 16,2 C 15,6 C 14,4 C 98 % 15 lf 1000,9 hPa 0,0 l/m 0 min 2 min 0 W/m 8,4 km/h (2 Bft) 93,62 %
14.09.2015 04:54 16,2 C 15,6 C 14,4 C 98 % 15 lf 1000,9 hPa 0,0 l/m 0 min 0 min 0 W/m 12,6 km/h (3 Bft) 95,83 %
14.09.2015 04:56 16,2 C 15,6 C 14,4 C 98 % 15 lf 1000,9 hPa 0,0 l/m 0 min 0 min 0 W/m 8,4 km/h (2 Bft) 93,75 %
14.09.2015 04:58 16,2 C 15,6 C 14,4 C 98 % 15 lf 1000,8 hPa 0,0 l/m 0 min 0 min 0 W/m 8,4 km/h (2 Bft) 95,74 %
14.09.2015 05:00 16,2 C 15,6 C 14,4 C 98 % 15 lf 1000,8 hPa 0,0 l/m 0 min 0 min 0 W/m 8,4 km/h (2 Bft) 97,87 %
14.09.2015 05:02 16,2 C 15,6 C 14,4 C 98 % 15 lf 1000,7 hPa 0,0 l/m 0 min 0 min 0 W/m 6,3 km/h (2 Bft) 91,49 %
14.09.2015 05:04 16,2 C 15,6 C 14,4 C 98 % 15 lf 1000,7 hPa 0,0 l/m 0 min 0 min 0 W/m 8,4 km/h (2 Bft) 95,65 %
14.09.2015 05:06 16,2 C 15,6 C 14,4 C 98 % 15 lf 1000,7 hPa 0,0 l/m 0 min 0 min 0 W/m 6,3 km/h (2 Bft) 91,30 %
14.09.2015 05:08 16,2 C 15,6 C 14,4 C 98 % 15 lf 1000,7 hPa 0,0 l/m 0 min 0 min 0 W/m 6,3 km/h (2 Bft) 91,49 %
14.09.2015 05:10 16,1 C 15,6 C 14,4 C 98 % 15 lf 1000,6 hPa 0,0 l/m 0 min 0 min 0 W/m 6,3 km/h (2 Bft) 93,62 %
14.09.2015 05:12 16,1 C 15,6 C 14,4 C 98 % 15 lf 1000,7 hPa 0,0 l/m 0 min 0 min 0 W/m 6,3 km/h (2 Bft) 91,30 %
14.09.2015 05:14 16,1 C 15,6 C 14,4 C 98 % 15 lf 1000,6 hPa 0,0 l/m 0 min 0 min 0 W/m 6,3 km/h (2 Bft) 89,13 %
14.09.2015 05:18 16,1 C 15,6 C 13,9 C 98 % 15 lf 1000,6 hPa 0,0 l/m 0 min 0 min 0 W/m 6,3 km/h (2 Bft) 91,67 %
14.09.2015 05:19 16,1 C 15,6 C 14,4 C 98 % 15 lf 1000,6 hPa 0,0 l/m 0 min 0 min 0 W/m 6,3 km/h (2 Bft) 96,38 %
14.09.2015 05:20 16,1 C 15,6 C 13,9 C 98 % 15 lf 1000,6 hPa 0,0 l/m 0 min 0 min 0 W/m 4,2 km/h (1 Bft) 96,38 %
14.09.2015 05:22 16,1 C 15,6 C 13,9 C 98 % 15 lf 1000,6 hPa 0,0 l/m 0 min 0 min 0 W/m 6,3 km/h (2 Bft) 90,32 %
14.09.2015 05:25 16,0 C 15,6 C 13,9 C 98 % 15 lf 1000,6 hPa 0,0 l/m 0 min 0 min 0 W/m 6,3 km/h (2 Bft) 84,51 %
14.09.2015 05:26 16,0 C 15,6 C 13,9 C 98 % 15 lf 1000,6 hPa 0,0 l/m 0 min 0 min 0 W/m 6,3 km/h (2 Bft) 91,30 %
14.09.2015 05:27 16,0 C 15,6 C 13,9 C 98 % 15 lf 1000,6 hPa 0,0 l/m 0 min 0 min 0 W/m 6,3 km/h (2 Bft) 91,30 %
14.09.2015 05:30 15,9 C 15,0 C 13,9 C 98 % 15 lf 1000,6 hPa 0,0 l/m 0 min 0 min 0 W/m 4,2 km/h (1 Bft) 89,13 %
14.09.2015 05:32 15,9 C 15,6 C 13,9 C 98 % 15 lf 1000,5 hPa 0,0 l/m 0 min 0 min 0 W/m 4,2 km/h (1 Bft) 89,36 %
14.09.2015 05:34 15,9 C 15,0 C 13,9 C 98 % 15 lf 1000,6 hPa 0,0 l/m 0 min 0 min 0 W/m 6,3 km/h (2 Bft) 87,50 %
14.09.2015 05:36 15,9 C 15,0 C 13,9 C 98 % 15 lf 1000,5 hPa 0,0 l/m 0 min 0 min 0 W/m 6,3 km/h (2 Bft) 91,49 %
14.09.2015 05:38 15,9 C 15,0 C 13,9 C 98 % 15 lf 1000,4 hPa 0,0 l/m 0 min 0 min 0 W/m 6,3 km/h (2 Bft) 93,48 %
14.09.2015 05:40 15,8 C 15,0 C 13,9 C 98 % 15 lf 1000,4 hPa 0,0 l/m 0 min 0 min 0 W/m 4,2 km/h (1 Bft) 93,62 %
14.09.2015 05:42 15,8 C 15,0 C 13,9 C 98 % 15 lf 1000,4 hPa 0,0 l/m 0 min 0 min 0 W/m 6,3 km/h (2 Bft) 95,74 %
14.09.2015 05:44 15,8 C 15,0 C 13,9 C 98 % 15 lf 1000,4 hPa 0,0 l/m 0 min 0 min 0 W/m 4,2 km/h (1 Bft) 95,74 %
14.09.2015 05:46 15,8 C 15,0 C 13,9 C 98 % 15 lf 1000,3 hPa 0,0 l/m 0 min 0 min 0 W/m 4,2 km/h (1 Bft) 95,74 %
14.09.2015 05:48 15,8 C 15,0 C 13,9 C 98 % 15 lf 1000,3 hPa 0,0 l/m 0 min 0 min 0 W/m 6,3 km/h (2 Bft) 95,74 %
14.09.2015 05:50 15,7 C 15,0 C 13,9 C 98 % 15 lf 1000,3 hPa 0,0 l/m 0 min 0 min 0 W/m 6,3 km/h (2 Bft) 97,56 %
14.09.2015 05:52 15,7 C 15,0 C 13,9 C 98 % 15 lf 1000,2 hPa 0,0 l/m 0 min 0 min 0 W/m 6,3 km/h (2 Bft) 96,00 %
14.09.2015 05:54 15,7 C 15,0 C 13,9 C 98 % 15 lf 1000,1 hPa 0,0 l/m 0 min 0 min 0 W/m 6,3 km/h (2 Bft) 97,92 %
14.09.2015 05:56 15,7 C 15,0 C 13,9 C 98 % 15 lf 1000,2 hPa 0,0 l/m 0 min 0 min 0 W/m 6,3 km/h (2 Bft) 95,83 %
14.09.2015 05:58 15,7 C 15,0 C 13,9 C 98 % 15 lf 1000,2 hPa 0,0 l/m 0 min 0 min 0 W/m 6,3 km/h (2 Bft) 100,00 %
14.09.2015 06:00 15,6 C 15,0 C 13,9 C 98 % 15 lf 1000,2 hPa 0,0 l/m 0 min 0 min 0 W/m 8,4 km/h (2 Bft) 97,56 %
14.09.2015 06:02 15,6 C 15,0 C 13,9 C 98 % 15 lf 1000,2 hPa 0,0 l/m 0 min 0 min 0 W/m 6,3 km/h (2 Bft) 100,00 %
14.09.2015 06:05 15,6 C 15,0 C 13,9 C 98 % 15 lf 1000,2 hPa 0,0 l/m 0 min 0 min 0 W/m 6,3 km/h (2 Bft) 100,00 %
14.09.2015 06:10 15,6 C 15,0 C 13,9 C 98 % 15 lf 1000,0 hPa 0,0 l/m 0 min 0 min 0 W/m 6,3 km/h (2 Bft) 97,40 %
14.09.2015 06:12 15,6 C 15,0 C 13,9 C 98 % 15 lf 1000,0 hPa 0,0 l/m 0 min 0 min 0 W/m 6,3 km/h (2 Bft) 100,00 %
14.09.2015 06:14 15,6 C 15,0 C 13,9 C 98 % 15 lf 1000,0 hPa 0,0 l/m 0 min 0 min 0 W/m 8,4 km/h (2 Bft) 97,87 %
14.09.2015 06:16 15,6 C 15,0 C 13,9 C 98 % 15 lf 1000,1 hPa 0,0 l/m 0 min 0 min 0 W/m 6,3 km/h (2 Bft) 97,87 %
14.09.2015 06:18 15,5 C 15,6 C 13,9 C 98 % 15 lf 1000,2 hPa 0,0 l/m 0 min 0 min 0 W/m 8,4 km/h (2 Bft) 100,00 %
14.09.2015 06:20 15,5 C 15,6 C 13,9 C 98 % 15 lf 1000,2 hPa 0,0 l/m 0 min 0 min 0 W/m 8,4 km/h (2 Bft) 97,62 %
14.09.2015 06:22 15,5 C 15,6 C 13,9 C 98 % 15 lf 1000,2 hPa 0,0 l/m 0 min 0 min 0 W/m 8,4 km/h (2 Bft) 100,00 %
14.09.2015 06:24 15,5 C 15,6 C 13,9 C 98 % 15 lf 1000,2 hPa 0,0 l/m 0 min 0 min 0 W/m 6,3 km/h (2 Bft) 100,00 %
14.09.2015 06:26 15,5 C 15,0 C 13,9 C 98 % 15 lf 1000,2 hPa 0,0 l/m 0 min 0 min 0 W/m 8,4 km/h (2 Bft) 100,00 %
14.09.2015 06:28 15,6 C 15,0 C 13,9 C 98 % 15 lf 1000,1 hPa 0,0 l/m 0 min 0 min 0 W/m 8,4 km/h (2 Bft) 97,96 %
14.09.2015 06:30 15,5 C 15,0 C 13,9 C 98 % 15 lf 1000,0 hPa 0,0 l/m 0 min 0 min 0 W/m 8,4 km/h (2 Bft) 97,96 %
14.09.2015 06:32 15,5 C 15,0 C 13,9 C 98 % 15 lf 1000,1 hPa 0,0 l/m 0 min 0 min 0 W/m 10,5 km/h (2 Bft) 100,00 %
14.09.2015 06:34 15,5 C 15,0 C 13,9 C 98 % 15 lf 1000,1 hPa 0,0 l/m 0 min 0 min 0 W/m 8,4 km/h (2 Bft) 100,00 %
14.09.2015 06:36 15,5 C 15,0 C 13,9 C 98 % 15 lf 1000,2 hPa 0,0 l/m 0 min 0 min 0 W/m 10,5 km/h (2 Bft) 97,14 %
14.09.2015 06:38 15,5 C 15,0 C 13,9 C 98 % 15 lf 1000,2 hPa 0,0 l/m 0 min 0 min 0 W/m 10,5 km/h (2 Bft) 97,83 %
14.09.2015 06:40 15,5 C 15,0 C 13,9 C 98 % 15 lf 1000,1 hPa 0,0 l/m 0 min 0 min 0 W/m 8,4 km/h (2 Bft) 98,15 %
14.09.2015 06:42 15,5 C 15,0 C 13,9 C 98 % 15 lf 1000,1 hPa 0,0 l/m 0 min 0 min 0 W/m 6,3 km/h (2 Bft) 100,00 %
14.09.2015 06:44 15,5 C 15,0 C 13,9 C 98 % 15 lf 1000,0 hPa 0,0 l/m 0 min 0 min 0 W/m 10,5 km/h (2 Bft) 100,00 %
14.09.2015 06:46 15,5 C 15,0 C 13,9 C 98 % 15 lf 1000,0 hPa 0,0 l/m 0 min 0 min 0 W/m 10,5 km/h (2 Bft) 100,00 %
14.09.2015 06:48 15,5 C 15,0 C 13,9 C 98 % 15 lf 1000,2 hPa 0,0 l/m 0 min 0 min 0 W/m 8,4 km/h (2 Bft) 97,92 %
14.09.2015 06:50 15,5 C 15,0 C 13,9 C 98 % 15 lf 1000,2 hPa 0,0 l/m 0 min 0 min 0 W/m 8,4 km/h (2 Bft) 95,83 %
14.09.2015 06:52 15,5 C 15,0 C 13,9 C 98 % 15 lf 1000,2 hPa 0,0 l/m 0 min 0 min 0 W/m 8,4 km/h (2 Bft) 97,87 %
14.09.2015 06:54 15,4 C 15,0 C 13,9 C 98 % 15 lf 1000,2 hPa 0,0 l/m 0 min 0 min 0 W/m 10,5 km/h (2 Bft) 95,74 %
14.09.2015 06:56 15,4 C 15,0 C 13,9 C 98 % 15 lf 1000,3 hPa 0,0 l/m 0 min 0 min 0 W/m 6,3 km/h (2 Bft) 100,00 %
14.09.2015 06:58 15,4 C 15,0 C 13,9 C 98 % 15 lf 1000,4 hPa 0,0 l/m 0 min 0 min 0 W/m 10,5 km/h (2 Bft) 100,00 %
14.09.2015 07:00 15,4 C 15,0 C 13,9 C 98 % 15 lf 1000,4 hPa 0,0 l/m 0 min 0 min 0 W/m 8,4 km/h (2 Bft) 97,87 %
14.09.2015 07:02 15,4 C 15,0 C 13,9 C 98 % 15 lf 1000,4 hPa 0,0 l/m 0 min 0 min 0 W/m 6,3 km/h (2 Bft) 91,49 %
14.09.2015 07:04 15,4 C 15,0 C 13,9 C 98 % 15 lf 1000,4 hPa 0,0 l/m 0 min 0 min 0 W/m 10,5 km/h (2 Bft) 100,00 %
14.09.2015 07:06 15,4 C 15,0 C 13,9 C 98 % 15 lf 1000,4 hPa 0,0 l/m 0 min 0 min 0 W/m 6,3 km/h (2 Bft) 97,87 %
14.09.2015 07:08 15,4 C 15,0 C 13,9 C 98 % 15 lf 1000,4 hPa 0,0 l/m 0 min 0 min 0 W/m 8,4 km/h (2 Bft) 95,74 %
14.09.2015 07:10 15,4 C 15,0 C 13,9 C 98 % 15 lf 1000,4 hPa 0,0 l/m 0 min 0 min 0 W/m 6,3 km/h (2 Bft) 96,36 %
14.09.2015 07:12 15,4 C 15,0 C 13,9 C 98 % 15 lf 1000,5 hPa 0,0 l/m 0 min 0 min 0 W/m 10,5 km/h (2 Bft) 97,96 %
14.09.2015 07:14 15,4 C 15,0 C 13,9 C 98 % 15 lf 1000,4 hPa 0,0 l/m 0 min 0 min 0 W/m 8,4 km/h (2 Bft) 97,87 %
14.09.2015 07:16 15,4 C 15,0 C 13,9 C 98 % 15 lf 1000,4 hPa 0,0 l/m 0 min 0 min 0 W/m 10,5 km/h (2 Bft) 97,92 %
14.09.2015 07:18 15,4 C 15,0 C 13,9 C 98 % 15 lf 1000,5 hPa 0,0 l/m 0 min 0 min 0 W/m 8,4 km/h (2 Bft) 95,83 %
14.09.2015 07:20 15,4 C 15,0 C 13,9 C 98 % 15 lf 1000,5 hPa 0,0 l/m 0 min 0 min 1 W/m 10,5 km/h (2 Bft) 97,92 %
14.09.2015 07:22 15,4 C 15,0 C 13,9 C 98 % 15 lf 1000,4 hPa 0,0 l/m 0 min 0 min 5 W/m 6,3 km/h (2 Bft) 97,87 %
14.09.2015 07:24 15,4 C 15,0 C 13,9 C 98 % 15 lf 1000,4 hPa 0,0 l/m 0 min 2 min 5 W/m 8,4 km/h (2 Bft) 97,87 %
14.09.2015 07:26 15,4 C 15,0 C 13,9 C 98 % 15 lf 1000,5 hPa 0,0 l/m 0 min 2 min 5 W/m 10,5 km/h (2 Bft) 100,00 %
14.09.2015 07:28 15,4 C 15,0 C 13,9 C 98 % 15 lf 1000,4 hPa 0,0 l/m 0 min 2 min 7 W/m 10,5 km/h (2 Bft) 97,87 %
14.09.2015 07:30 15,4 C 15,0 C 13,9 C 98 % 15 lf 1000,4 hPa 0,0 l/m 0 min 2 min 8 W/m 10,5 km/h (2 Bft) 96,36 %
14.09.2015 07:32 15,4 C 15,0 C 13,9 C 98 % 15 lf 1000,5 hPa 0,0 l/m 0 min 2 min 10 W/m 10,5 km/h (2 Bft) 97,87 %
14.09.2015 07:34 15,4 C 15,0 C 13,9 C 98 % 15 lf 1000,5 hPa 0,2 l/m 0 min 2 min 11 W/m 8,4 km/h (2 Bft) 95,83 %
14.09.2015 07:36 15,4 C 15,0 C 13,9 C 98 % 15 lf 1000,5 hPa 0,0 l/m 0 min 2 min 12 W/m 6,3 km/h (2 Bft) 97,92 %
14.09.2015 07:38 15,4 C 15,0 C 13,9 C 98 % 15 lf 1000,5 hPa 0,2 l/m 0 min 2 min 14 W/m 6,3 km/h (2 Bft) 100,00 %
14.09.2015 07:40 15,4 C 15,0 C 13,9 C 98 % 15 lf 1000,5 hPa 0,0 l/m 0 min 2 min 13 W/m 8,4 km/h (2 Bft) 97,92 %
14.09.2015 07:42 15,4 C 15,0 C 13,9 C 98 % 15 lf 1000,5 hPa 0,0 l/m 0 min 2 min 11 W/m 8,4 km/h (2 Bft) 91,43 %
14.09.2015 07:44 15,4 C 15,0 C 13,9 C 98 % 15 lf 1000,6 hPa 0,0 l/m 0 min 2 min 11 W/m 8,4 km/h (2 Bft) 97,87 %
14.09.2015 07:46 15,4 C 15,0 C 13,9 C 98 % 15 lf 1000,5 hPa 0,0 l/m 0 min 2 min 11 W/m 6,3 km/h (2 Bft) 95,74 %
14.09.2015 07:48 15,4 C 15,0 C 13,9 C 98 % 15 lf 1000,4 hPa 0,0 l/m 0 min 2 min 15 W/m 6,3 km/h (2 Bft) 95,65 %
14.09.2015 07:50 15,4 C 15,0 C 13,9 C 98 % 15 lf 1000,4 hPa 0,0 l/m 0 min 2 min 18 W/m 14,6 km/h (3 Bft) 96,49 %
14.09.2015 07:52 15,4 C 15,0 C 13,9 C 98 % 15 lf 1000,4 hPa 0,2 l/m 0 min 2 min 19 W/m 14,6 km/h (3 Bft) 97,92 %
14.09.2015 07:54 15,4 C 15,0 C 13,9 C 99 % 15 lf 1000,4 hPa 0,0 l/m 0 min 2 min 19 W/m 10,5 km/h (2 Bft) 97,92 %
14.09.2015 07:56 15,4 C 15,0 C 13,9 C 99 % 15 lf 1000,4 hPa 0,0 l/m 0 min 0 min 25 W/m 10,5 km/h (2 Bft) 97,87 %
14.09.2015 07:58 15,4 C 15,0 C 13,9 C 99 % 15 lf 1000,4 hPa 0,0 l/m 0 min 0 min 30 W/m 10,5 km/h (2 Bft) 97,83 %
14.09.2015 08:00 15,4 C 15,0 C 13,9 C 99 % 15 lf 1000,3 hPa 0,0 l/m 0 min 0 min 30 W/m 12,6 km/h (3 Bft) 95,74 %
14.09.2015 08:02 15,4 C 15,0 C 13,9 C 99 % 15 lf 1000,3 hPa 0,0 l/m 0 min 0 min 33 W/m 12,6 km/h (3 Bft) 97,87 %
14.09.2015 08:04 15,4 C 15,6 C 13,9 C 99 % 15 lf 1000,3 hPa 0,0 l/m 0 min 0 min 40 W/m 8,4 km/h (2 Bft) 95,74 %
14.09.2015 08:06 15,4 C 15,6 C 14,4 C 99 % 15 lf 1000,3 hPa 0,0 l/m 0 min 0 min 43 W/m 10,5 km/h (2 Bft) 95,74 %
14.09.2015 08:08 15,4 C 15,6 C 14,4 C 99 % 15 lf 1000,3 hPa 0,0 l/m 0 min 0 min 40 W/m 12,6 km/h (3 Bft) 97,14 %
14.09.2015 08:10 15,4 C 15,6 C 14,4 C 99 % 15 lf 1000,3 hPa 0,0 l/m 0 min 0 min 34 W/m 10,5 km/h (2 Bft) 93,62 %
14.09.2015 08:12 15,4 C 15,6 C 13,9 C 99 % 15 lf 1000,4 hPa 0,0 l/m 0 min 0 min 25 W/m 12,6 km/h (3 Bft) 93,48 %
14.09.2015 08:14 15,4 C 15,6 C 13,9 C 98 % 15 lf 1000,3 hPa 0,0 l/m 0 min 0 min 15 W/m 12,6 km/h (3 Bft) 95,74 %
14.09.2015 08:16 15,4 C 15,0 C 13,9 C 99 % 15 lf 1000,3 hPa 0,0 l/m 0 min 0 min 10 W/m 8,4 km/h (2 Bft) 93,62 %
14.09.2015 08:18 15,4 C 15,0 C 13,9 C 99 % 15 lf 1000,3 hPa 0,0 l/m 0 min 0 min 9 W/m 8,4 km/h (2 Bft) 96,30 %
14.09.2015 08:20 15,4 C 15,0 C 13,9 C 99 % 15 lf 1000,3 hPa 0,0 l/m 0 min 0 min 9 W/m 10,5 km/h (2 Bft) 93,88 %
14.09.2015 08:22 15,4 C 15,0 C 13,9 C 99 % 15 lf 1000,3 hPa 0,0 l/m 0 min 0 min 11 W/m 10,5 km/h (2 Bft) 91,67 %
14.09.2015 08:24 15,4 C 15,0 C 13,9 C 99 % 15 lf 1000,3 hPa 0,0 l/m 0 min 0 min 11 W/m 10,5 km/h (2 Bft) 91,67 %
14.09.2015 08:26 15,4 C 15,6 C 13,9 C 99 % 15 lf 1000,4 hPa 0,0 l/m 0 min 0 min 12 W/m 10,5 km/h (2 Bft) 91,49 %
14.09.2015 08:28 15,4 C 15,6 C 13,9 C 99 % 15 lf 1000,4 hPa 0,0 l/m 0 min 0 min 14 W/m 8,4 km/h (2 Bft) 95,74 %
14.09.2015 08:30 15,4 C 15,6 C 13,9 C 99 % 15 lf 1000,4 hPa 0,0 l/m 0 min 0 min 18 W/m 18,8 km/h (3 Bft) 93,02 %
14.09.2015 08:32 15,4 C 15,6 C 13,9 C 99 % 15 lf 1000,4 hPa 0,0 l/m 0 min 0 min 23 W/m 16,7 km/h (3 Bft) 95,74 %
14.09.2015 08:34 15,4 C 15,6 C 13,9 C 99 % 15 lf 1000,4 hPa 0,0 l/m 0 min 0 min 23 W/m 12,6 km/h (3 Bft) 95,83 %
14.09.2015 08:36 15,4 C 15,6 C 13,9 C 99 % 15 lf 1000,4 hPa 0,0 l/m 0 min 0 min 22 W/m 14,6 km/h (3 Bft) 95,83 %
14.09.2015 08:38 15,4 C 15,6 C 13,9 C 99 % 15 lf 1000,4 hPa 0,0 l/m 0 min 0 min 25 W/m 8,4 km/h (2 Bft) 95,74 %
14.09.2015 08:40 15,4 C 15,6 C 13,9 C 99 % 15 lf 1000,4 hPa 0,0 l/m 0 min 0 min 30 W/m 8,4 km/h (2 Bft) 93,75 %
14.09.2015 08:42 15,4 C 15,6 C 14,4 C 99 % 15 lf 1000,4 hPa 0,0 l/m 0 min 0 min 36 W/m 10,5 km/h (2 Bft) 95,74 %
14.09.2015 08:44 15,4 C 15,6 C 14,4 C 99 % 15 lf 1000,4 hPa 0,0 l/m 0 min 0 min 45 W/m 10,5 km/h (2 Bft) 95,65 %
14.09.2015 08:46 15,4 C 15,6 C 14,4 C 99 % 15 lf 1000,3 hPa 0,0 l/m 0 min 0 min 56 W/m 10,5 km/h (2 Bft) 91,67 %
14.09.2015 08:48 15,5 C 15,6 C 14,4 C 99 % 15 lf 1000,3 hPa 0,0 l/m 0 min 0 min 63 W/m 14,6 km/h (3 Bft) 95,65 %
14.09.2015 08:50 15,5 C 15,6 C 14,4 C 99 % 15 lf 1000,3 hPa 0,0 l/m 0 min 0 min 69 W/m 12,6 km/h (3 Bft) 93,62 %
14.09.2015 08:52 15,5 C 15,6 C 14,4 C 99 % 15 lf 1000,3 hPa 0,0 l/m 0 min 2 min 70 W/m 12,6 km/h (3 Bft) 94,44 %
14.09.2015 08:54 15,5 C 15,6 C 14,4 C 99 % 15 lf 1000,3 hPa 0,0 l/m 0 min 2 min 66 W/m 12,6 km/h (3 Bft) 97,92 %
14.09.2015 08:56 15,5 C 15,6 C 14,4 C 99 % 15 lf 1000,3 hPa 0,0 l/m 0 min 2 min 59 W/m 14,6 km/h (3 Bft) 98,00 %
14.09.2015 08:58 15,5 C 15,6 C 14,4 C 99 % 15 lf 1000,4 hPa 0,0 l/m 0 min 2 min 55 W/m 10,5 km/h (2 Bft) 95,74 %
14.09.2015 09:00 15,6 C 15,6 C 14,4 C 99 % 15 lf 1000,4 hPa 0,0 l/m 0 min 2 min 55 W/m 8,4 km/h (2 Bft) 94,29 %
14.09.2015 09:02 15,6 C 15,6 C 14,4 C 99 % 15 lf 1000,4 hPa 0,0 l/m 0 min 2 min 54 W/m 10,5 km/h (2 Bft) 95,74 %
14.09.2015 09:04 15,6 C 15,6 C 14,4 C 99 % 15 lf 1000,3 hPa 0,0 l/m 0 min 2 min 52 W/m 10,5 km/h (2 Bft) 93,62 %
14.09.2015 09:06 15,6 C 15,6 C 14,4 C 99 % 15 lf 1000,3 hPa 0,0 l/m 0 min 2 min 51 W/m 6,3 km/h (2 Bft) 94,34 %
14.09.2015 09:08 15,6 C 15,6 C 14,4 C 99 % 15 lf 1000,3 hPa 0,0 l/m 0 min 2 min 49 W/m 8,4 km/h (2 Bft) 91,84 %
14.09.2015 09:10 15,6 C 15,6 C 14,4 C 99 % 15 lf 1000,2 hPa 0,2 l/m 0 min 2 min 49 W/m 10,5 km/h (2 Bft) 96,00 %
14.09.2015 09:12 15,6 C 15,6 C 14,4 C 99 % 15 lf 1000,3 hPa 0,0 l/m 0 min 0 min 55 W/m 8,4 km/h (2 Bft) 94,29 %
14.09.2015 09:14 15,6 C 15,6 C 14,4 C 99 % 15 lf 1000,2 hPa 0,0 l/m 0 min 2 min 58 W/m 8,4 km/h (2 Bft) 93,62 %
14.09.2015 09:16 15,6 C 15,6 C 14,4 C 99 % 15 lf 1000,2 hPa 0,0 l/m 0 min 2 min 58 W/m 8,4 km/h (2 Bft) 93,62 %
14.09.2015 09:18 15,6 C 15,6 C 14,4 C 99 % 15 lf 1000,2 hPa 0,0 l/m 0 min 2 min 62 W/m 10,5 km/h (2 Bft) 95,74 %
14.09.2015 09:20 15,6 C 15,6 C 14,4 C 99 % 15 lf 1000,2 hPa 0,0 l/m 0 min 2 min 73 W/m 14,6 km/h (3 Bft) 94,55 %
14.09.2015 09:22 15,6 C 15,6 C 14,4 C 99 % 15 lf 1000,2 hPa 0,0 l/m 0 min 2 min 88 W/m 8,4 km/h (2 Bft) 95,74 %
14.09.2015 09:24 15,6 C 15,6 C 14,4 C 99 % 15 lf 1000,3 hPa 0,0 l/m 0 min 2 min 95 W/m 10,5 km/h (2 Bft) 97,92 %
14.09.2015 09:26 15,6 C 15,6 C 14,4 C 99 % 15 lf 1000,4 hPa 0,0 l/m 0 min 2 min 98 W/m 12,6 km/h (3 Bft) 97,87 %
14.09.2015 09:28 15,6 C 15,6 C 14,4 C 99 % 15 lf 1000,3 hPa 0,2 l/m 0 min 2 min 92 W/m 12,6 km/h (3 Bft) 97,87 %
14.09.2015 09:30 15,6 C 15,6 C 14,4 C 99 % 15 lf 1000,2 hPa 0,0 l/m 0 min 2 min 84 W/m 14,6 km/h (3 Bft) 95,83 %
14.09.2015 09:32 15,7 C 15,6 C 14,4 C 99 % 15 lf 1000,2 hPa 0,0 l/m 0 min 2 min 88 W/m 8,4 km/h (2 Bft) 97,87 %
14.09.2015 09:34 15,7 C 15,6 C 14,4 C 99 % 15 lf 1000,0 hPa 0,0 l/m 0 min 2 min 103 W/m 16,7 km/h (3 Bft) 94,29 %
14.09.2015 09:36 15,7 C 15,6 C 14,4 C 99 % 15 lf 1000,0 hPa 0,0 l/m 0 min 0 min 108 W/m 18,8 km/h (3 Bft) 100,00 %
14.09.2015 09:38 15,7 C 15,6 C 14,4 C 99 % 15 lf 1000,0 hPa 0,0 l/m 0 min 0 min 118 W/m 10,5 km/h (2 Bft) 100,00 %
14.09.2015 09:40 15,7 C 16,1 C 15,0 C 99 % 15 lf 1000,1 hPa 0,0 l/m 0 min 0 min 133 W/m 12,6 km/h (3 Bft) 100,00 %
14.09.2015 09:42 15,7 C 16,1 C 15,0 C 99 % 15 lf 1000,1 hPa 0,0 l/m 0 min 0 min 151 W/m 14,6 km/h (3 Bft) 100,00 %
14.09.2015 09:44 15,7 C 16,1 C 15,0 C 99 % 15 lf 1000,2 hPa 0,0 l/m 0 min 0 min 144 W/m 14,6 km/h (3 Bft) 100,00 %
14.09.2015 09:46 15,8 C 16,1 C 15,0 C 99 % 15 lf 1000,2 hPa 0,0 l/m 0 min 0 min 141 W/m 16,7 km/h (3 Bft) 95,92 %
14.09.2015 09:48 15,8 C 16,1 C 15,0 C 99 % 15 lf 1000,2 hPa 0,0 l/m 0 min 0 min 162 W/m 14,6 km/h (3 Bft) 97,92 %
14.09.2015 09:50 15,8 C 17,8 C 15,6 C 99 % 15 lf 1000,1 hPa 0,0 l/m 2 min 0 min 236 W/m 14,6 km/h (3 Bft) 97,14 %
14.09.2015 09:52 15,9 C 18,3 C 17,2 C 99 % 15 lf 1000,2 hPa 0,0 l/m 2 min 0 min 414 W/m 12,6 km/h (3 Bft) 98,15 %
14.09.2015 09:54 16,0 C 18,9 C 17,8 C 99 % 15 lf 1000,2 hPa 0,0 l/m 2 min 0 min 497 W/m 14,6 km/h (3 Bft) 100,00 %
14.09.2015 09:56 16,2 C 18,9 C 17,2 C 99 % 15 lf 1000,3 hPa 0,0 l/m 2 min 0 min 354 W/m 14,6 km/h (3 Bft) 97,92 %
14.09.2015 09:58 16,3 C 19,4 C 17,2 C 99 % 15 lf 1000,3 hPa 0,0 l/m 2 min 0 min 379 W/m 18,8 km/h (3 Bft) 97,92 %
14.09.2015 10:00 16,4 C 18,9 C 17,8 C 99 % 15 lf 1000,4 hPa 0,0 l/m 2 min 0 min 467 W/m 20,9 km/h (4 Bft) 100,00 %
14.09.2015 10:02 16,4 C 18,9 C 16,7 C 99 % 15 lf 1000,4 hPa 0,0 l/m 2 min 0 min 342 W/m 16,7 km/h (3 Bft) 100,00 %
14.09.2015 10:04 16,4 C 19,4 C 17,2 C 99 % 15 lf 1000,4 hPa 0,0 l/m 2 min 0 min 350 W/m 20,9 km/h (4 Bft) 95,74 %
14.09.2015 10:06 16,5 C 19,4 C 17,8 C 99 % 15 lf 1000,4 hPa 0,0 l/m 2 min 0 min 525 W/m 25,1 km/h (4 Bft) 100,00 %
14.09.2015 10:08 16,6 C 20,0 C 17,8 C 99 % 14 lf 1000,3 hPa 0,0 l/m 2 min 0 min 470 W/m 16,7 km/h (3 Bft) 97,22 %
14.09.2015 10:10 16,6 C 21,1 C 18,3 C 99 % 14 lf 1000,3 hPa 0,0 l/m 2 min 0 min 526 W/m 14,6 km/h (3 Bft) 97,83 %
14.09.2015 10:12 16,7 C 19,4 C 17,2 C 99 % 13 lf 1000,4 hPa 0,0 l/m 2 min 0 min 501 W/m 16,7 km/h (3 Bft) 98,15 %
14.09.2015 10:14 16,7 C 19,4 C 16,7 C 99 % 13 lf 1000,4 hPa 0,0 l/m 2 min 0 min 323 W/m 14,6 km/h (3 Bft) 97,92 %
14.09.2015 10:16 16,7 C 18,9 C 16,7 C 99 % 12 lf 1000,5 hPa 0,0 l/m 0 min 0 min 186 W/m 20,9 km/h (4 Bft) 100,00 %
14.09.2015 10:18 16,8 C 19,4 C 16,7 C 99 % 11 lf 1000,3 hPa 0,0 l/m 2 min 0 min 375 W/m 16,7 km/h (3 Bft) 97,92 %
14.09.2015 10:20 16,8 C 19,4 C 16,7 C 99 % 9 lf 1000,4 hPa 0,0 l/m 0 min 0 min 203 W/m 8,4 km/h (2 Bft) 100,00 %
14.09.2015 10:22 16,8 C 19,4 C 16,7 C 99 % 7 lf 1000,4 hPa 0,0 l/m 0 min 0 min 222 W/m 23,0 km/h (4 Bft) 100,00 %
14.09.2015 10:24 16,8 C 18,9 C 16,1 C 99 % 4 lf 1000,4 hPa 0,0 l/m 0 min 0 min 165 W/m 20,9 km/h (4 Bft) 100,00 %
14.09.2015 10:26 16,8 C 18,9 C 16,1 C 99 % 3 lf 1000,3 hPa 0,0 l/m 0 min 0 min 196 W/m 16,7 km/h (3 Bft) 94,29 %
14.09.2015 10:28 16,8 C 20,0 C 16,1 C 99 % 3 lf 1000,5 hPa 0,0 l/m 0 min 0 min 220 W/m 16,7 km/h (3 Bft) 93,62 %
14.09.2015 10:30 16,8 C 21,1 C 16,1 C 99 % 1 lf 1000,4 hPa 0,0 l/m 2 min 0 min 315 W/m 14,6 km/h (3 Bft) 96,43 %
14.09.2015 10:32 16,8 C 23,3 C 17,8 C 99 % 0 lf 1000,3 hPa 0,0 l/m 2 min 0 min 426 W/m 6,3 km/h (2 Bft) 97,37 %
14.09.2015 10:34 16,9 C 25,6 C 18,9 C 99 % 0 lf 1000,3 hPa 0,0 l/m 2 min 0 min 598 W/m 12,6 km/h (3 Bft) 97,83 %
14.09.2015 10:36 17,0 C 25,0 C 18,3 C 99 % 0 lf 1000,3 hPa 0,0 l/m 2 min 0 min 584 W/m 12,6 km/h (3 Bft) 95,74 %
14.09.2015 10:38 17,2 C 24,4 C 17,8 C 99 % 0 lf 1000,2 hPa 0,0 l/m 2 min 0 min 584 W/m 14,6 km/h (3 Bft) 98,15 %
14.09.2015 10:40 17,3 C 23,3 C 17,8 C 99 % 0 lf 1000,2 hPa 0,0 l/m 2 min 0 min 365 W/m 14,6 km/h (3 Bft) 95,83 %
14.09.2015 10:42 17,3 C 21,7 C 17,8 C 99 % 0 lf 1000,2 hPa 0,0 l/m 2 min 0 min 320 W/m 16,7 km/h (3 Bft) 95,83 %
14.09.2015 10:44 17,3 C 21,1 C 17,8 C 99 % 0 lf 1000,2 hPa 0,0 l/m 2 min 0 min 291 W/m 20,9 km/h (4 Bft) 93,75 %
14.09.2015 10:46 17,3 C 21,1 C 17,2 C 99 % 0 lf 1000,2 hPa 0,0 l/m 2 min 0 min 281 W/m 14,6 km/h (3 Bft) 95,83 %
14.09.2015 10:48 17,3 C 21,1 C 17,2 C 99 % 0 lf 1000,2 hPa 0,0 l/m 2 min 0 min 280 W/m 12,6 km/h (3 Bft) 95,74 %
14.09.2015 10:50 17,3 C 21,1 C 17,8 C 99 % 0 lf 1000,2 hPa 0,0 l/m 2 min 0 min 295 W/m 12,6 km/h (3 Bft) 95,74 %
14.09.2015 10:52 17,3 C 21,7 C 17,8 C 99 % 0 lf 1000,1 hPa 0,0 l/m 2 min 0 min 321 W/m 18,8 km/h (3 Bft) 97,14 %
14.09.2015 10:54 17,3 C 23,9 C 19,4 C 99 % 0 lf 1000,2 hPa 0,0 l/m 2 min 0 min 521 W/m 18,8 km/h (3 Bft) 97,87 %
14.09.2015 10:56 17,4 C 25,0 C 20,0 C 99 % 0 lf 1000,1 hPa 0,0 l/m 2 min 0 min 613 W/m 14,6 km/h (3 Bft) 95,65 %
14.09.2015 10:58 17,4 C 25,0 C 20,0 C 99 % 0 lf 1000,2 hPa 0,0 l/m 2 min 0 min 489 W/m 16,7 km/h (3 Bft) 93,62 %
14.09.2015 11:00 17,6 C 26,1 C 21,1 C 99 % 0 lf 1000,2 hPa 0,0 l/m 2 min 0 min 541 W/m 18,8 km/h (3 Bft) 92,59 %
14.09.2015 11:02 17,7 C 27,8 C 21,7 C 99 % 0 lf 1000,2 hPa 0,0 l/m 2 min 0 min 638 W/m 18,8 km/h (3 Bft) 95,83 %
14.09.2015 11:04 17,9 C 27,2 C 21,1 C 99 % 0 lf 1000,3 hPa 0,0 l/m 2 min 0 min 560 W/m 10,5 km/h (2 Bft) 95,83 %
14.09.2015 11:06 18,0 C 26,1 C 20,6 C 99 % 0 lf 1000,2 hPa 0,0 l/m 2 min 0 min 315 W/m 10,5 km/h (2 Bft) 93,88 %
14.09.2015 11:08 18,1 C 24,4 C 20,0 C 98 % 0 lf 1000,3 hPa 0,0 l/m 2 min 0 min 293 W/m 16,7 km/h (3 Bft) 93,75 %
14.09.2015 11:10 18,1 C 22,2 C 19,4 C 98 % 0 lf 1000,3 hPa 0,0 l/m 2 min 0 min 295 W/m 20,9 km/h (4 Bft) 91,89 %
14.09.2015 11:12 18,1 C 21,7 C 18,3 C 98 % 0 lf 1000,3 hPa 0,0 l/m 2 min 0 min 294 W/m 18,8 km/h (3 Bft) 93,62 %
14.09.2015 11:14 18,2 C 22,2 C 18,3 C 98 % 0 lf 1000,3 hPa 0,0 l/m 2 min 0 min 362 W/m 16,7 km/h (3 Bft) 93,62 %
14.09.2015 11:16 18,2 C 23,3 C 18,3 C 97 % 0 lf 1000,2 hPa 0,0 l/m 2 min 0 min 428 W/m 14,6 km/h (3 Bft) 87,23 %
14.09.2015 11:18 18,3 C 24,4 C 19,4 C 97 % 0 lf 1000,2 hPa 0,0 l/m 2 min 0 min 452 W/m 16,7 km/h (3 Bft) 95,65 %
14.09.2015 11:20 18,4 C 24,4 C 20,0 C 96 % 0 lf 1000,1 hPa 0,0 l/m 2 min 0 min 529 W/m 16,7 km/h (3 Bft) 92,73 %
14.09.2015 11:22 18,5 C 24,4 C 20,0 C 95 % 0 lf 1000,2 hPa 0,0 l/m 2 min 0 min 445 W/m 14,6 km/h (3 Bft) 95,83 %
14.09.2015 11:24 18,6 C 25,0 C 20,0 C 95 % 0 lf 1000,1 hPa 0,0 l/m 2 min 0 min 392 W/m 14,6 km/h (3 Bft) 93,75 %
14.09.2015 11:26 18,7 C 22,8 C 19,4 C 94 % 0 lf 1000,1 hPa 0,0 l/m 0 min 0 min 277 W/m 16,7 km/h (3 Bft) 91,30 %
14.09.2015 11:28 18,7 C 22,2 C 18,9 C 93 % 0 lf 1000,2 hPa 0,0 l/m 2 min 0 min 312 W/m 16,7 km/h (3 Bft) 95,74 %
14.09.2015 11:30 18,8 C 20,6 C 18,3 C 92 % 0 lf 1000,1 hPa 0,0 l/m 0 min 0 min 237 W/m 18,8 km/h (3 Bft) 94,59 %
14.09.2015 11:32 18,8 C 20,6 C 18,3 C 91 % 0 lf 1000,1 hPa 0,0 l/m 0 min 0 min 256 W/m 20,9 km/h (4 Bft) 89,36 %
14.09.2015 11:34 18,8 C 20,6 C 18,3 C 90 % 0 lf 1000,1 hPa 0,0 l/m 0 min 0 min 260 W/m 18,8 km/h (3 Bft) 89,36 %
14.09.2015 11:36 18,8 C 21,1 C 18,3 C 90 % 0 lf 1000,1 hPa 0,0 l/m 0 min 0 min 271 W/m 14,6 km/h (3 Bft) 95,74 %
14.09.2015 11:38 18,9 C 21,7 C 18,9 C 89 % 0 lf 1000,1 hPa 0,0 l/m 0 min 0 min 274 W/m 27,2 km/h (4 Bft) 95,74 %
14.09.2015 11:40 18,9 C 22,8 C 20,0 C 88 % 0 lf 1000,0 hPa 0,0 l/m 2 min 0 min 396 W/m 25,1 km/h (4 Bft) 96,23 %
14.09.2015 11:42 18,9 C 23,3 C 20,6 C 88 % 0 lf 1000,0 hPa 0,0 l/m 2 min 0 min 418 W/m 20,9 km/h (4 Bft) 95,83 %
14.09.2015 11:44 19,1 C 23,9 C 20,6 C 88 % 0 lf 1000,0 hPa 0,0 l/m 2 min 0 min 457 W/m 20,9 km/h (4 Bft) 97,96 %
14.09.2015 11:46 19,1 C 22,8 C 20,0 C 87 % 0 lf 1000,0 hPa 0,0 l/m 0 min 0 min 274 W/m 25,1 km/h (4 Bft) 94,59 %
14.09.2015 11:48 19,1 C 21,1 C 19,4 C 86 % 0 lf 1000,0 hPa 0,0 l/m 0 min 0 min 216 W/m 25,1 km/h (4 Bft) 95,74 %
14.09.2015 11:50 19,1 C 21,1 C 18,9 C 85 % 0 lf 1000,0 hPa 0,0 l/m 0 min 0 min 246 W/m 25,1 km/h (4 Bft) 98,11 %
14.09.2015 11:52 19,1 C 21,1 C 18,3 C 85 % 0 lf 1000,0 hPa 0,0 l/m 0 min 0 min 250 W/m 35,6 km/h (5 Bft) 97,92 %
14.09.2015 11:54 19,1 C 20,6 C 18,3 C 84 % 0 lf 999,9 hPa 0,0 l/m 0 min 0 min 227 W/m 33,5 km/h (5 Bft) 95,83 %
14.09.2015 11:56 19,1 C 20,0 C 18,3 C 84 % 0 lf 999,9 hPa 0,0 l/m 0 min 0 min 220 W/m 29,3 km/h (5 Bft) 95,83 %
14.09.2015 11:58 19,1 C 20,0 C 18,3 C 83 % 0 lf 999,9 hPa 0,0 l/m 0 min 0 min 242 W/m 23,0 km/h (4 Bft) 97,92 %
14.09.2015 12:00 19,1 C 20,0 C 18,3 C 84 % 0 lf 999,9 hPa 0,0 l/m 0 min 0 min 227 W/m 23,0 km/h (4 Bft) 94,44 %
14.09.2015 12:02 19,0 C 20,0 C 17,8 C 84 % 0 lf 999,8 hPa 0,0 l/m 0 min 0 min 220 W/m 33,5 km/h (5 Bft) 97,87 %
14.09.2015 12:05 18,9 C 19,4 C 17,8 C 84 % 0 lf 999,8 hPa 0,0 l/m 0 min 0 min 156 W/m 23,0 km/h (4 Bft) 97,87 %
14.09.2015 12:10 18,9 C 18,9 C 17,2 C 84 % 0 lf 999,8 hPa 0,0 l/m 0 min 0 min 155 W/m 23,0 km/h (4 Bft) 97,33 %
14.09.2015 12:12 18,9 C 16,7 C 16,1 C 85 % 4 lf 999,8 hPa 0,4 l/m 0 min 2 min 113 W/m 23,0 km/h (4 Bft) 95,74 %
14.09.2015 12:14 18,8 C 16,7 C 15,6 C 86 % 15 lf 999,8 hPa 0,0 l/m 0 min 2 min 182 W/m 23,0 km/h (4 Bft) 98,11 %
14.09.2015 12:16 18,8 C 17,2 C 15,6 C 86 % 15 lf 999,7 hPa 0,0 l/m 0 min 2 min 286 W/m 20,9 km/h (4 Bft) 97,92 %
14.09.2015 12:18 18,7 C 18,9 C 16,1 C 86 % 14 lf 999,7 hPa 0,2 l/m 0 min 2 min 230 W/m 23,0 km/h (4 Bft) 97,92 %
14.09.2015 12:20 18,7 C 21,1 C 17,2 C 87 % 12 lf 999,7 hPa 0,0 l/m 2 min 0 min 617 W/m 18,8 km/h (3 Bft) 97,37 %
14.09.2015 12:22 18,8 C 22,8 C 18,3 C 88 % 9 lf 999,6 hPa 0,0 l/m 2 min 0 min 646 W/m 8,4 km/h (2 Bft) 97,87 %
14.09.2015 12:24 18,8 C 22,2 C 18,3 C 89 % 4 lf 999,5 hPa 0,0 l/m 2 min 0 min 635 W/m 23,0 km/h (4 Bft) 100,00 %
14.09.2015 12:26 18,9 C 22,8 C 18,9 C 89 % 2 lf 999,5 hPa 0,0 l/m 2 min 0 min 634 W/m 16,7 km/h (3 Bft) 96,23 %
14.09.2015 12:28 19,0 C 23,9 C 18,3 C 89 % 0 lf 999,5 hPa 0,0 l/m 2 min 0 min 640 W/m 18,8 km/h (3 Bft) 97,96 %
14.09.2015 12:30 19,1 C 26,1 C 18,3 C 89 % 0 lf 999,4 hPa 0,0 l/m 2 min 0 min 649 W/m 18,8 km/h (3 Bft) 97,37 %
14.09.2015 12:32 19,1 C 25,0 C 18,3 C 89 % 0 lf 999,5 hPa 0,0 l/m 2 min 0 min 667 W/m 27,2 km/h (4 Bft) 95,74 %
14.09.2015 12:34 19,2 C 25,6 C 18,3 C 88 % 0 lf 999,5 hPa 0,0 l/m 2 min 0 min 715 W/m 27,2 km/h (4 Bft) 95,74 %
14.09.2015 12:36 19,2 C 25,0 C 17,8 C 87 % 0 lf 999,4 hPa 0,0 l/m 2 min 0 min 733 W/m 25,1 km/h (4 Bft) 97,87 %
14.09.2015 12:38 19,3 C 26,1 C 17,8 C 86 % 0 lf 999,4 hPa 0,0 l/m 2 min 0 min 736 W/m 29,3 km/h (5 Bft) 95,74 %
14.09.2015 12:40 19,4 C 27,2 C 17,8 C 85 % 0 lf 999,3 hPa 0,0 l/m 2 min 0 min 740 W/m 27,2 km/h (4 Bft) 96,43 %
14.09.2015 12:42 19,6 C 27,2 C 17,8 C 84 % 0 lf 999,3 hPa 0,0 l/m 2 min 0 min 807 W/m 33,5 km/h (5 Bft) 97,92 %
14.09.2015 12:44 19,7 C 27,2 C 17,8 C 83 % 0 lf 999,3 hPa 0,0 l/m 2 min 0 min 842 W/m 25,1 km/h (4 Bft) 91,67 %
14.09.2015 12:46 19,8 C 25,6 C 17,8 C 82 % 0 lf 999,4 hPa 0,0 l/m 2 min 0 min 550 W/m 20,9 km/h (4 Bft) 97,87 %
14.09.2015 12:48 19,9 C 26,1 C 17,8 C 81 % 0 lf 999,3 hPa 0,0 l/m 0 min 0 min 297 W/m 25,1 km/h (4 Bft) 97,87 %
14.09.2015 12:50 20,0 C 26,7 C 18,9 C 81 % 0 lf 999,3 hPa 0,0 l/m 2 min 0 min 780 W/m 25,1 km/h (4 Bft) 95,74 %
14.09.2015 12:52 20,1 C 26,1 C 18,3 C 80 % 0 lf 999,2 hPa 0,0 l/m 2 min 0 min 860 W/m 29,3 km/h (5 Bft) 97,87 %
14.09.2015 12:54 20,2 C 27,8 C 18,3 C 79 % 0 lf 999,3 hPa 0,0 l/m 2 min 0 min 846 W/m 31,4 km/h (5 Bft) 98,11 %
14.09.2015 12:56 20,3 C 27,8 C 18,3 C 79 % 0 lf 999,3 hPa 0,0 l/m 2 min 0 min 787 W/m 31,4 km/h (5 Bft) 97,92 %
14.09.2015 12:58 20,4 C 26,7 C 18,3 C 77 % 0 lf 999,3 hPa 0,0 l/m 2 min 0 min 785 W/m 27,2 km/h (4 Bft) 97,92 %
14.09.2015 13:00 20,4 C 25,0 C 17,8 C 76 % 0 lf 999,2 hPa 0,0 l/m 2 min 0 min 791 W/m 27,2 km/h (4 Bft) 97,37 %
14.09.2015 13:02 20,4 C 26,7 C 18,3 C 76 % 0 lf 999,2 hPa 0,0 l/m 2 min 0 min 804 W/m 23,0 km/h (4 Bft) 100,00 %
14.09.2015 13:04 20,5 C 27,8 C 18,9 C 76 % 0 lf 999,2 hPa 0,0 l/m 2 min 0 min 807 W/m 20,9 km/h (4 Bft) 97,83 %
14.09.2015 13:06 20,6 C 28,3 C 18,9 C 76 % 0 lf 999,2 hPa 0,0 l/m 2 min 0 min 779 W/m 31,4 km/h (5 Bft) 97,87 %
14.09.2015 13:08 20,7 C 28,3 C 18,9 C 75 % 0 lf 999,2 hPa 0,0 l/m 2 min 0 min 809 W/m 37,7 km/h (5 Bft) 98,15 %
14.09.2015 13:10 20,8 C 26,7 C 18,9 C 73 % 0 lf 999,3 hPa 0,0 l/m 2 min 0 min 825 W/m 33,5 km/h (5 Bft) 96,00 %
14.09.2015 13:12 20,9 C 27,2 C 19,4 C 73 % 0 lf 999,3 hPa 0,0 l/m 2 min 0 min 819 W/m 43,9 km/h (6 Bft) 97,87 %
14.09.2015 13:14 20,9 C 26,7 C 20,0 C 73 % 0 lf 999,2 hPa 0,0 l/m 2 min 0 min 760 W/m 31,4 km/h (5 Bft) 97,22 %
14.09.2015 13:16 21,0 C 24,4 C 19,4 C 72 % 0 lf 999,3 hPa 0,0 l/m 2 min 0 min 656 W/m 29,3 km/h (5 Bft) 93,62 %
14.09.2015 13:18 20,9 C 22,8 C 18,9 C 71 % 0 lf 999,2 hPa 0,0 l/m 0 min 0 min 194 W/m 33,5 km/h (5 Bft) 91,49 %
14.09.2015 13:20 20,9 C 24,4 C 18,9 C 71 % 0 lf 999,2 hPa 0,0 l/m 0 min 0 min 256 W/m 33,5 km/h (5 Bft) 93,62 %
14.09.2015 13:22 20,8 C 25,0 C 19,4 C 71 % 0 lf 999,3 hPa 0,0 l/m 0 min 0 min 258 W/m 33,5 km/h (5 Bft) 95,74 %
14.09.2015 13:24 20,8 C 23,9 C 19,4 C 71 % 0 lf 999,2 hPa 0,0 l/m 0 min 0 min 258 W/m 41,8 km/h (6 Bft) 95,74 %
14.09.2015 13:26 20,8 C 23,3 C 19,4 C 69 % 0 lf 999,2 hPa 0,0 l/m 0 min 0 min 280 W/m 35,6 km/h (5 Bft) 94,34 %
14.09.2015 13:28 20,8 C 22,8 C 19,4 C 69 % 0 lf 999,3 hPa 0,0 l/m 0 min 0 min 296 W/m 25,1 km/h (4 Bft) 93,62 %
14.09.2015 13:30 20,8 C 24,4 C 19,4 C 70 % 0 lf 999,2 hPa 0,0 l/m 0 min 0 min 246 W/m 33,5 km/h (5 Bft) 96,08 %
14.09.2015 13:32 20,8 C 25,6 C 20,0 C 71 % 0 lf 999,2 hPa 0,0 l/m 2 min 0 min 730 W/m 33,5 km/h (5 Bft) 94,44 %
14.09.2015 13:34 20,8 C 26,1 C 20,0 C 71 % 0 lf 999,3 hPa 0,0 l/m 2 min 0 min 794 W/m 31,4 km/h (5 Bft) 95,74 %
14.09.2015 13:36 20,9 C 26,7 C 20,0 C 69 % 0 lf 999,3 hPa 0,0 l/m 2 min 0 min 722 W/m 33,5 km/h (5 Bft) 95,74 %
14.09.2015 13:38 20,9 C 24,4 C 19,4 C 68 % 0 lf 999,1 hPa 0,0 l/m 2 min 0 min 621 W/m 39,7 km/h (6 Bft) 93,62 %
14.09.2015 13:40 20,8 C 24,4 C 19,4 C 67 % 0 lf 999,1 hPa 0,0 l/m 0 min 0 min 192 W/m 31,4 km/h (5 Bft) 96,49 %
14.09.2015 13:42 20,9 C 25,6 C 19,4 C 68 % 0 lf 999,2 hPa 0,0 l/m 2 min 0 min 679 W/m 31,4 km/h (5 Bft) 94,44 %
14.09.2015 13:44 20,9 C 26,7 C 19,4 C 69 % 0 lf 999,2 hPa 0,0 l/m 2 min 0 min 774 W/m 18,8 km/h (3 Bft) 97,87 %
14.09.2015 13:46 20,9 C 26,1 C 19,4 C 69 % 0 lf 999,2 hPa 0,0 l/m 2 min 0 min 779 W/m 25,1 km/h (4 Bft) 95,74 %
14.09.2015 13:48 21,0 C 27,2 C 20,0 C 69 % 0 lf 999,1 hPa 0,0 l/m 2 min 0 min 779 W/m 14,6 km/h (3 Bft) 95,74 %
14.09.2015 13:50 21,1 C 25,6 C 20,0 C 69 % 0 lf 999,2 hPa 0,0 l/m 2 min 0 min 438 W/m 18,8 km/h (3 Bft) 96,23 %
14.09.2015 13:52 21,1 C 23,9 C 19,4 C 68 % 0 lf 999,2 hPa 0,0 l/m 0 min 0 min 146 W/m 29,3 km/h (5 Bft) 93,75 %
14.09.2015 13:54 21,1 C 25,6 C 19,4 C 68 % 0 lf 999,1 hPa 0,0 l/m 2 min 0 min 422 W/m 16,7 km/h (3 Bft) 97,87 %
14.09.2015 13:56 21,1 C 27,2 C 20,0 C 69 % 0 lf 999,1 hPa 0,0 l/m 2 min 0 min 807 W/m 27,2 km/h (4 Bft) 95,83 %
14.09.2015 13:58 21,2 C 28,3 C 20,0 C 69 % 0 lf 999,2 hPa 0,0 l/m 2 min 0 min 784 W/m 37,7 km/h (5 Bft) 95,74 %
14.09.2015 14:00 21,3 C 28,3 C 20,0 C 68 % 0 lf 999,2 hPa 0,0 l/m 2 min 0 min 796 W/m 29,3 km/h (5 Bft) 94,74 %
14.09.2015 14:02 21,4 C 28,9 C 20,0 C 67 % 0 lf 999,1 hPa 0,0 l/m 2 min 0 min 746 W/m 25,1 km/h (4 Bft) 97,87 %
14.09.2015 14:04 21,5 C 28,9 C 20,0 C 66 % 0 lf 999,2 hPa 0,0 l/m 2 min 0 min 707 W/m 31,4 km/h (5 Bft) 97,83 %
14.09.2015 14:06 21,6 C 27,8 C 20,0 C 65 % 0 lf 999,1 hPa 0,0 l/m 2 min 0 min 711 W/m 35,6 km/h (5 Bft) 97,87 %
14.09.2015 14:08 21,6 C 27,8 C 20,0 C 65 % 0 lf 999,1 hPa 0,0 l/m 2 min 0 min 750 W/m 25,1 km/h (4 Bft) 97,87 %
14.09.2015 14:10 21,7 C 26,7 C 20,0 C 65 % 0 lf 999,2 hPa 0,0 l/m 2 min 0 min 793 W/m 31,4 km/h (5 Bft) 96,30 %
14.09.2015 14:12 21,7 C 26,7 C 19,4 C 65 % 0 lf 999,0 hPa 0,0 l/m 2 min 0 min 793 W/m 27,2 km/h (4 Bft) 95,83 %
14.09.2015 14:14 21,7 C 27,8 C 20,0 C 66 % 0 lf 999,1 hPa 0,0 l/m 2 min 0 min 790 W/m 20,9 km/h (4 Bft) 97,92 %
14.09.2015 14:16 21,8 C 27,8 C 20,6 C 65 % 0 lf 999,1 hPa 0,0 l/m 2 min 0 min 793 W/m 31,4 km/h (5 Bft) 97,92 %
14.09.2015 14:18 21,8 C 28,3 C 20,6 C 65 % 0 lf 999,0 hPa 0,0 l/m 2 min 0 min 771 W/m 35,6 km/h (5 Bft) 88,89 %
14.09.2015 14:20 21,9 C 28,3 C 20,6 C 65 % 0 lf 999,0 hPa 0,0 l/m 2 min 0 min 786 W/m 27,2 km/h (4 Bft) 95,74 %
14.09.2015 14:22 21,9 C 27,8 C 20,6 C 65 % 0 lf 998,9 hPa 0,0 l/m 2 min 0 min 780 W/m 27,2 km/h (4 Bft) 96,23 %
14.09.2015 14:24 22,1 C 28,9 C 20,6 C 66 % 0 lf 998,8 hPa 0,0 l/m 2 min 0 min 731 W/m 29,3 km/h (5 Bft) 97,92 %
14.09.2015 14:26 22,1 C 27,8 C 20,6 C 65 % 0 lf 998,8 hPa 0,0 l/m 2 min 0 min 711 W/m 39,7 km/h (6 Bft) 97,92 %
14.09.2015 14:28 22,1 C 27,2 C 20,6 C 63 % 0 lf 998,8 hPa 0,0 l/m 2 min 0 min 686 W/m 33,5 km/h (5 Bft) 97,92 %
14.09.2015 14:30 22,1 C 27,8 C 20,0 C 63 % 0 lf 998,8 hPa 0,0 l/m 2 min 0 min 688 W/m 35,6 km/h (5 Bft) 94,59 %
14.09.2015 14:32 22,1 C 27,8 C 20,0 C 63 % 0 lf 998,8 hPa 0,0 l/m 2 min 0 min 688 W/m 33,5 km/h (5 Bft) 97,87 %
14.09.2015 14:34 22,1 C 25,6 C 19,4 C 63 % 0 lf 998,8 hPa 0,0 l/m 2 min 0 min 689 W/m 35,6 km/h (5 Bft) 97,87 %
14.09.2015 14:36 21,9 C 26,7 C 19,4 C 63 % 0 lf 998,8 hPa 0,0 l/m 2 min 0 min 690 W/m 25,1 km/h (4 Bft) 95,74 %
14.09.2015 14:38 21,9 C 27,2 C 20,0 C 64 % 0 lf 998,9 hPa 0,0 l/m 2 min 0 min 717 W/m 29,3 km/h (5 Bft) 95,65 %
14.09.2015 14:40 21,9 C 28,3 C 20,0 C 64 % 0 lf 998,9 hPa 0,0 l/m 2 min 0 min 731 W/m 33,5 km/h (5 Bft) 94,83 %
14.09.2015 14:42 21,9 C 27,8 C 20,0 C 64 % 0 lf 998,9 hPa 0,0 l/m 2 min 0 min 765 W/m 31,4 km/h (5 Bft) 100,00 %
14.09.2015 14:44 21,9 C 25,6 C 20,0 C 64 % 0 lf 998,9 hPa 0,0 l/m 2 min 0 min 428 W/m 27,2 km/h (4 Bft) 97,87 %
14.09.2015 14:46 21,9 C 23,3 C 19,4 C 63 % 0 lf 998,8 hPa 0,0 l/m 0 min 0 min 175 W/m 46,0 km/h (6 Bft) 95,74 %
14.09.2015 14:48 21,8 C 23,9 C 20,0 C 65 % 0 lf 998,8 hPa 0,0 l/m 0 min 0 min 173 W/m 37,7 km/h (5 Bft) 95,74 %
14.09.2015 14:50 21,8 C 22,8 C 19,4 C 65 % 0 lf 998,9 hPa 0,0 l/m 0 min 0 min 197 W/m 25,1 km/h (4 Bft) 98,11 %
14.09.2015 14:52 21,7 C 23,3 C 19,4 C 65 % 0 lf 999,0 hPa 0,0 l/m 0 min 0 min 219 W/m 31,4 km/h (5 Bft) 97,87 %
14.09.2015 14:54 21,6 C 22,8 C 19,4 C 64 % 0 lf 999,0 hPa 0,0 l/m 2 min 0 min 311 W/m 20,9 km/h (4 Bft) 93,75 %
14.09.2015 14:56 21,6 C 22,2 C 19,4 C 65 % 0 lf 999,0 hPa 0,0 l/m 0 min 0 min 174 W/m 18,8 km/h (3 Bft) 97,92 %
14.09.2015 14:58 21,5 C 22,2 C 18,9 C 65 % 0 lf 998,8 hPa 0,0 l/m 0 min 0 min 172 W/m 25,1 km/h (4 Bft) 97,87 %
14.09.2015 15:00 21,4 C 21,7 C 18,9 C 65 % 0 lf 998,8 hPa 0,0 l/m 0 min 0 min 214 W/m 35,6 km/h (5 Bft) 97,37 %
14.09.2015 15:02 21,3 C 21,1 C 18,9 C 65 % 0 lf 998,9 hPa 0,0 l/m 0 min 0 min 143 W/m 16,7 km/h (3 Bft) 95,65 %
14.09.2015 15:04 21,2 C 21,1 C 18,9 C 66 % 0 lf 998,8 hPa 0,0 l/m 0 min 0 min 137 W/m 27,2 km/h (4 Bft) 97,87 %
14.09.2015 15:06 21,1 C 23,9 C 18,9 C 67 % 0 lf 998,8 hPa 0,0 l/m 0 min 0 min 158 W/m 31,4 km/h (5 Bft) 97,87 %
14.09.2015 15:08 21,1 C 26,1 C 19,4 C 68 % 0 lf 999,0 hPa 0,0 l/m 2 min 0 min 523 W/m 31,4 km/h (5 Bft) 98,15 %
14.09.2015 15:10 21,1 C 26,7 C 19,4 C 68 % 0 lf 998,8 hPa 0,0 l/m 2 min 0 min 661 W/m 25,1 km/h (4 Bft) 95,92 %
14.09.2015 15:12 21,2 C 27,2 C 20,0 C 68 % 0 lf 998,8 hPa 0,0 l/m 2 min 0 min 643 W/m 25,1 km/h (4 Bft) 95,83 %
14.09.2015 15:14 21,3 C 27,8 C 20,0 C 68 % 0 lf 998,8 hPa 0,0 l/m 2 min 0 min 657 W/m 20,9 km/h (4 Bft) 94,44 %
14.09.2015 15:16 21,4 C 27,8 C 20,0 C 67 % 0 lf 998,8 hPa 0,0 l/m 2 min 0 min 675 W/m 27,2 km/h (4 Bft) 95,74 %
14.09.2015 15:18 21,4 C 27,8 C 20,0 C 68 % 0 lf 998,9 hPa 0,0 l/m 2 min 0 min 700 W/m 27,2 km/h (4 Bft) 93,62 %
14.09.2015 15:20 21,6 C 28,9 C 20,6 C 68 % 0 lf 998,8 hPa 0,0 l/m 2 min 0 min 712 W/m 16,7 km/h (3 Bft) 97,87 %
14.09.2015 15:22 21,7 C 28,9 C 20,6 C 69 % 0 lf 998,8 hPa 0,0 l/m 2 min 0 min 700 W/m 33,5 km/h (5 Bft) 92,45 %
14.09.2015 15:24 21,8 C 28,9 C 20,6 C 67 % 0 lf 998,8 hPa 0,0 l/m 2 min 0 min 708 W/m 23,0 km/h (4 Bft) 95,74 %
14.09.2015 15:26 21,9 C 26,1 C 20,6 C 66 % 0 lf 998,8 hPa 0,0 l/m 2 min 0 min 714 W/m 25,1 km/h (4 Bft) 93,62 %
14.09.2015 15:28 22,0 C 26,1 C 20,0 C 67 % 0 lf 998,8 hPa 0,0 l/m 2 min 0 min 647 W/m 23,0 km/h (4 Bft) 95,83 %
14.09.2015 15:30 22,0 C 25,6 C 20,0 C 67 % 0 lf 998,8 hPa 0,0 l/m 0 min 0 min 240 W/m 16,7 km/h (3 Bft) 92,00 %
14.09.2015 15:32 22,1 C 26,1 C 20,0 C 66 % 0 lf 998,8 hPa 0,0 l/m 2 min 0 min 312 W/m 16,7 km/h (3 Bft) 93,48 %
14.09.2015 15:34 22,1 C 25,0 C 20,0 C 66 % 0 lf 998,8 hPa 0,0 l/m 2 min 0 min 291 W/m 23,0 km/h (4 Bft) 91,89 %
14.09.2015 15:36 22,1 C 24,4 C 20,0 C 65 % 0 lf 998,7 hPa 0,0 l/m 2 min 0 min 286 W/m 37,7 km/h (5 Bft) 95,65 %
14.09.2015 15:38 22,0 C 25,6 C 20,0 C 64 % 0 lf 998,7 hPa 0,0 l/m 2 min 0 min 329 W/m 31,4 km/h (5 Bft) 95,74 %
14.09.2015 15:40 21,9 C 25,0 C 20,0 C 63 % 0 lf 998,8 hPa 0,0 l/m 2 min 0 min 545 W/m 29,3 km/h (5 Bft) 92,98 %
14.09.2015 15:42 21,9 C 23,9 C 20,0 C 63 % 0 lf 998,7 hPa 0,0 l/m 2 min 0 min 676 W/m 33,5 km/h (5 Bft) 94,59 %
14.09.2015 15:44 21,8 C 22,8 C 19,4 C 63 % 0 lf 998,6 hPa 0,0 l/m 0 min 0 min 249 W/m 37,7 km/h (5 Bft) 95,74 %
14.09.2015 15:46 21,7 C 22,2 C 19,4 C 63 % 0 lf 998,6 hPa 0,0 l/m 0 min 0 min 154 W/m 31,4 km/h (5 Bft) 95,74 %
14.09.2015 15:48 21,6 C 21,1 C 19,4 C 63 % 0 lf 998,7 hPa 0,0 l/m 0 min 0 min 155 W/m 33,5 km/h (5 Bft) 93,48 %
14.09.2015 15:50 21,5 C 21,1 C 18,9 C 63 % 0 lf 998,7 hPa 0,0 l/m 0 min 0 min 177 W/m 25,1 km/h (4 Bft) 94,64 %
14.09.2015 15:52 21,4 C 21,1 C 18,9 C 64 % 0 lf 998,6 hPa 0,0 l/m 0 min 0 min 160 W/m 20,9 km/h (4 Bft) 97,92 %
14.09.2015 15:54 21,3 C 21,1 C 18,9 C 64 % 0 lf 998,7 hPa 0,0 l/m 0 min 0 min 110 W/m 14,6 km/h (3 Bft) 97,92 %
14.09.2015 15:56 21,2 C 21,1 C 18,9 C 65 % 0 lf 998,7 hPa 0,0 l/m 0 min 0 min 90 W/m 20,9 km/h (4 Bft) 91,67 %
14.09.2015 15:58 21,1 C 20,6 C 18,9 C 65 % 0 lf 998,6 hPa 0,0 l/m 0 min 0 min 84 W/m 25,1 km/h (4 Bft) 97,92 %
14.09.2015 16:00 21,0 C 18,9 C 17,8 C 65 % 0 lf 998,8 hPa 0,0 l/m 0 min 2 min 79 W/m 41,8 km/h (6 Bft) 97,92 %
14.09.2015 16:02 20,9 C 18,3 C 17,2 C 67 % 7 lf 998,7 hPa 0,0 l/m 0 min 2 min 93 W/m 20,9 km/h (4 Bft) 91,49 %
14.09.2015 16:04 20,8 C 18,3 C 17,2 C 68 % 3 lf 998,8 hPa 0,0 l/m 0 min 2 min 135 W/m 18,8 km/h (3 Bft) 95,74 %
14.09.2015 16:06 20,7 C 18,9 C 17,8 C 68 % 0 lf 998,8 hPa 0,0 l/m 0 min 0 min 181 W/m 29,3 km/h (5 Bft) 98,15 %
14.09.2015 16:08 20,6 C 18,9 C 17,8 C 68 % 0 lf 998,8 hPa 0,0 l/m 0 min 0 min 188 W/m 53,3 km/h (7 Bft) 94,59 %
14.09.2015 16:10 20,4 C 19,4 C 18,3 C 67 % 0 lf 998,9 hPa 0,0 l/m 0 min 0 min 168 W/m 31,4 km/h (5 Bft) 93,88 %
14.09.2015 16:12 20,3 C 20,0 C 17,8 C 67 % 1 lf 999,0 hPa 0,0 l/m 0 min 0 min 121 W/m 43,9 km/h (6 Bft) 97,87 %
14.09.2015 16:14 20,2 C 18,9 C 17,2 C 68 % 0 lf 999,2 hPa 0,0 l/m 0 min 2 min 93 W/m 41,8 km/h (6 Bft) 91,49 %
14.09.2015 16:16 20,0 C 17,8 C 16,1 C 71 % 15 lf 999,3 hPa 0,0 l/m 0 min 2 min 91 W/m 39,7 km/h (6 Bft) 97,87 %
14.09.2015 16:18 19,9 C 16,1 C 15,0 C 73 % 15 lf 999,4 hPa 0,2 l/m 0 min 2 min 105 W/m 29,3 km/h (5 Bft) 95,74 %
14.09.2015 16:20 19,7 C 16,1 C 14,4 C 74 % 15 lf 999,5 hPa 0,0 l/m 0 min 2 min 136 W/m 37,7 km/h (5 Bft) 95,65 %
14.09.2015 16:22 19,4 C 16,7 C 14,4 C 74 % 15 lf 999,5 hPa 0,0 l/m 0 min 2 min 170 W/m 27,2 km/h (4 Bft) 97,87 %
14.09.2015 16:24 19,2 C 16,7 C 15,0 C 75 % 15 lf 999,5 hPa 0,0 l/m 0 min 0 min 193 W/m 27,2 km/h (4 Bft) 95,74 %
14.09.2015 16:26 19,1 C 17,2 C 15,0 C 77 % 15 lf 999,4 hPa 0,0 l/m 0 min 2 min 213 W/m 16,7 km/h (3 Bft) 95,74 %
14.09.2015 16:28 18,9 C 17,2 C 15,0 C 77 % 15 lf 999,3 hPa 0,0 l/m 0 min 2 min 229 W/m 39,7 km/h (6 Bft) 97,87 %
14.09.2015 16:30 18,8 C 17,2 C 15,0 C 77 % 15 lf 999,3 hPa 0,0 l/m 2 min 2 min 253 W/m 31,4 km/h (5 Bft) 95,56 %
14.09.2015 16:32 18,7 C 18,3 C 15,6 C 78 % 15 lf 999,5 hPa 0,0 l/m 2 min 2 min 363 W/m 20,9 km/h (4 Bft) 93,88 %
14.09.2015 16:34 18,7 C 19,4 C 15,6 C 79 % 15 lf 999,5 hPa 0,0 l/m 2 min 2 min 396 W/m 20,9 km/h (4 Bft) 95,65 %
14.09.2015 16:36 18,7 C 21,1 C 16,1 C 79 % 15 lf 999,5 hPa 0,0 l/m 2 min 2 min 479 W/m 20,9 km/h (4 Bft) 97,87 %
14.09.2015 16:38 18,7 C 21,7 C 16,1 C 80 % 14 lf 999,4 hPa 0,0 l/m 2 min 0 min 573 W/m 31,4 km/h (5 Bft) 97,87 %
14.09.2015 16:40 18,8 C 22,2 C 16,1 C 80 % 11 lf 999,4 hPa 0,0 l/m 2 min 0 min 347 W/m 23,0 km/h (4 Bft) 95,74 %
14.09.2015 16:42 18,8 C 23,3 C 16,1 C 79 % 0 lf 999,5 hPa 0,0 l/m 2 min 0 min 418 W/m 58,6 km/h (7 Bft) 96,23 %
14.09.2015 16:44 18,8 C 22,8 C 16,1 C 76 % 0 lf 999,2 hPa 0,0 l/m 2 min 0 min 377 W/m 46,0 km/h (6 Bft) 100,00 %
14.09.2015 16:46 18,9 C 22,2 C 16,1 C 76 % 0 lf 999,3 hPa 0,0 l/m 2 min 0 min 302 W/m 31,4 km/h (5 Bft) 100,00 %
14.09.2015 16:48 18,9 C 23,3 C 16,1 C 76 % 0 lf 999,3 hPa 0,0 l/m 2 min 0 min 481 W/m 27,2 km/h (4 Bft) 100,00 %
14.09.2015 16:50 18,9 C 22,8 C 16,7 C 75 % 0 lf 999,3 hPa 0,0 l/m 2 min 0 min 457 W/m 37,7 km/h (5 Bft) 100,00 %
14.09.2015 16:52 19,0 C 23,3 C 16,7 C 74 % 0 lf 999,2 hPa 0,0 l/m 2 min 0 min 437 W/m 29,3 km/h (5 Bft) 97,87 %
14.09.2015 16:54 19,1 C 23,3 C 16,7 C 74 % 0 lf 999,2 hPa 0,0 l/m 2 min 0 min 425 W/m 46,0 km/h (6 Bft) 97,87 %
14.09.2015 16:56 19,1 C 22,8 C 16,7 C 72 % 0 lf 999,1 hPa 0,0 l/m 2 min 0 min 429 W/m 46,0 km/h (6 Bft) 96,23 %
14.09.2015 16:58 19,2 C 23,9 C 17,2 C 73 % 0 lf 999,1 hPa 0,0 l/m 2 min 0 min 419 W/m 23,0 km/h (4 Bft) 97,92 %
14.09.2015 17:00 19,2 C 23,9 C 17,2 C 72 % 0 lf 999,2 hPa 0,0 l/m 2 min 0 min 419 W/m 35,6 km/h (5 Bft) 97,44 %
14.09.2015 17:02 19,3 C 23,9 C 17,8 C 72 % 0 lf 999,3 hPa 0,0 l/m 2 min 0 min 414 W/m 33,5 km/h (5 Bft) 97,87 %
14.09.2015 17:04 19,4 C 23,3 C 17,2 C 71 % 0 lf 999,3 hPa 0,0 l/m 2 min 0 min 413 W/m 37,7 km/h (5 Bft) 98,15 %
14.09.2015 17:06 19,4 C 24,4 C 17,2 C 71 % 0 lf 999,2 hPa 0,0 l/m 2 min 0 min 411 W/m 25,1 km/h (4 Bft) 100,00 %
14.09.2015 17:08 19,5 C 23,9 C 17,8 C 71 % 0 lf 999,2 hPa 0,0 l/m 2 min 0 min 406 W/m 31,4 km/h (5 Bft) 100,00 %
14.09.2015 17:10 19,6 C 23,3 C 17,2 C 70 % 0 lf 999,2 hPa 0,0 l/m 2 min 0 min 386 W/m 43,9 km/h (6 Bft) 95,92 %
14.09.2015 17:12 19,6 C 22,8 C 17,2 C 70 % 0 lf 999,3 hPa 0,0 l/m 2 min 0 min 317 W/m 29,3 km/h (5 Bft) 95,74 %
14.09.2015 17:14 19,6 C 21,1 C 17,2 C 69 % 0 lf 999,3 hPa 0,0 l/m 0 min 0 min 142 W/m 46,0 km/h (6 Bft) 95,74 %
14.09.2015 17:16 19,4 C 20,6 C 17,2 C 69 % 0 lf 999,3 hPa 0,0 l/m 0 min 0 min 115 W/m 31,4 km/h (5 Bft) 97,87 %
14.09.2015 17:18 19,4 C 20,6 C 17,2 C 68 % 0 lf 999,3 hPa 0,0 l/m 0 min 0 min 135 W/m 25,1 km/h (4 Bft) 97,87 %
14.09.2015 17:20 19,3 C 21,7 C 17,2 C 68 % 0 lf 999,4 hPa 0,0 l/m 2 min 0 min 376 W/m 35,6 km/h (5 Bft) 98,15 %
14.09.2015 17:22 19,3 C 21,7 C 17,2 C 69 % 0 lf 999,4 hPa 0,0 l/m 2 min 0 min 376 W/m 27,2 km/h (4 Bft) 94,44 %
14.09.2015 17:24 19,3 C 23,3 C 17,2 C 69 % 0 lf 999,4 hPa 0,0 l/m 2 min 0 min 284 W/m 23,0 km/h (4 Bft) 97,92 %
14.09.2015 17:26 19,3 C 23,3 C 17,2 C 68 % 0 lf 999,3 hPa 0,0 l/m 2 min 0 min 403 W/m 31,4 km/h (5 Bft) 93,75 %
14.09.2015 17:28 19,4 C 23,3 C 17,2 C 68 % 0 lf 999,4 hPa 0,0 l/m 2 min 0 min 371 W/m 31,4 km/h (5 Bft) 97,92 %
14.09.2015 17:30 19,4 C 23,3 C 17,2 C 67 % 0 lf 999,3 hPa 0,0 l/m 2 min 0 min 360 W/m 35,6 km/h (5 Bft) 93,18 %
14.09.2015 17:32 19,4 C 23,3 C 17,2 C 68 % 0 lf 999,4 hPa 0,0 l/m 2 min 0 min 345 W/m 25,1 km/h (4 Bft) 93,62 %
14.09.2015 17:34 19,5 C 23,3 C 17,2 C 68 % 0 lf 999,4 hPa 0,0 l/m 2 min 0 min 333 W/m 29,3 km/h (5 Bft) 91,67 %
14.09.2015 17:36 19,5 C 23,3 C 17,2 C 67 % 0 lf 999,3 hPa 0,0 l/m 2 min 0 min 326 W/m 35,6 km/h (5 Bft) 95,83 %
14.09.2015 17:38 19,6 C 23,3 C 17,2 C 67 % 0 lf 999,4 hPa 0,0 l/m 2 min 0 min 318 W/m 29,3 km/h (5 Bft) 93,62 %
14.09.2015 17:40 19,6 C 23,9 C 17,2 C 67 % 0 lf 999,4 hPa 0,0 l/m 2 min 0 min 306 W/m 23,0 km/h (4 Bft) 94,44 %
14.09.2015 17:42 19,6 C 23,9 C 17,2 C 67 % 0 lf 999,3 hPa 0,0 l/m 2 min 0 min 296 W/m 20,9 km/h (4 Bft) 94,74 %
14.09.2015 17:44 19,6 C 23,3 C 17,2 C 67 % 0 lf 999,4 hPa 0,0 l/m 2 min 0 min 287 W/m 35,6 km/h (5 Bft) 93,75 %
14.09.2015 17:46 19,6 C 22,8 C 17,2 C 67 % 0 lf 999,6 hPa 0,0 l/m 2 min 0 min 281 W/m 39,7 km/h (6 Bft) 91,49 %
14.09.2015 17:48 19,6 C 22,8 C 17,2 C 66 % 0 lf 999,4 hPa 0,0 l/m 2 min 0 min 272 W/m 43,9 km/h (6 Bft) 93,62 %
14.09.2015 17:50 19,6 C 22,2 C 17,2 C 66 % 0 lf 999,4 hPa 0,0 l/m 2 min 0 min 265 W/m 35,6 km/h (5 Bft) 97,87 %
14.09.2015 17:52 19,5 C 21,7 C 17,2 C 65 % 0 lf 999,4 hPa 0,0 l/m 2 min 0 min 258 W/m 39,7 km/h (6 Bft) 96,30 %
14.09.2015 17:54 19,5 C 21,1 C 17,2 C 66 % 0 lf 999,4 hPa 0,0 l/m 2 min 0 min 251 W/m 29,3 km/h (5 Bft) 91,67 %
14.09.2015 17:56 19,4 C 22,2 C 16,7 C 66 % 0 lf 999,6 hPa 0,0 l/m 2 min 0 min 243 W/m 31,4 km/h (5 Bft) 95,83 %
14.09.2015 17:58 19,5 C 22,2 C 17,2 C 67 % 0 lf 999,6 hPa 0,0 l/m 2 min 0 min 249 W/m 31,4 km/h (5 Bft) 95,83 %
14.09.2015 18:00 19,5 C 22,8 C 17,2 C 67 % 0 lf 999,7 hPa 0,0 l/m 2 min 0 min 252 W/m 31,4 km/h (5 Bft) 91,67 %
14.09.2015 18:02 19,4 C 22,2 C 17,2 C 67 % 0 lf 999,6 hPa 0,0 l/m 2 min 0 min 252 W/m 37,7 km/h (5 Bft) 95,74 %
14.09.2015 18:05 19,4 C 20,6 C 17,2 C 66 % 0 lf 999,7 hPa 0,0 l/m 0 min 0 min 109 W/m 37,7 km/h (5 Bft) 95,74 %
14.09.2015 18:10 19,3 C 20,0 C 17,2 C 66 % 0 lf 999,9 hPa 0,0 l/m 2 min 0 min 208 W/m 37,7 km/h (5 Bft) 95,40 %
14.09.2015 18:12 19,3 C 20,0 C 17,2 C 66 % 0 lf 999,9 hPa 0,0 l/m 2 min 0 min 271 W/m 46,0 km/h (6 Bft) 98,33 %
14.09.2015 18:14 19,2 C 20,6 C 17,2 C 66 % 0 lf 999,8 hPa 0,0 l/m 2 min 0 min 246 W/m 35,6 km/h (5 Bft) 97,87 %
14.09.2015 18:16 19,2 C 20,6 C 17,2 C 66 % 0 lf 999,9 hPa 0,0 l/m 2 min 0 min 235 W/m 35,6 km/h (5 Bft) 97,87 %
14.09.2015 18:18 19,2 C 21,1 C 17,2 C 67 % 0 lf 999,9 hPa 0,0 l/m 2 min 0 min 209 W/m 27,2 km/h (4 Bft) 100,00 %
14.09.2015 18:20 19,2 C 20,6 C 17,2 C 66 % 0 lf 999,8 hPa 0,0 l/m 2 min 0 min 178 W/m 43,9 km/h (6 Bft) 97,78 %
14.09.2015 18:22 19,1 C 20,0 C 16,7 C 67 % 0 lf 999,9 hPa 0,0 l/m 2 min 0 min 173 W/m 33,5 km/h (5 Bft) 97,92 %
14.09.2015 18:24 19,1 C 19,4 C 16,7 C 67 % 0 lf 999,9 hPa 0,0 l/m 2 min 0 min 167 W/m 41,8 km/h (6 Bft) 95,74 %
14.09.2015 18:26 19,0 C 19,4 C 16,7 C 67 % 0 lf 999,8 hPa 0,0 l/m 2 min 0 min 165 W/m 31,4 km/h (5 Bft) 98,15 %
14.09.2015 18:28 19,0 C 18,9 C 16,7 C 68 % 0 lf 999,8 hPa 0,0 l/m 2 min 0 min 144 W/m 31,4 km/h (5 Bft) 97,22 %
14.09.2015 18:30 18,9 C 18,9 C 16,7 C 69 % 0 lf 999,9 hPa 0,0 l/m 2 min 0 min 150 W/m 23,0 km/h (4 Bft) 98,00 %
14.09.2015 18:32 18,9 C 18,9 C 16,7 C 69 % 0 lf 1000,0 hPa 0,0 l/m 2 min 0 min 153 W/m 31,4 km/h (5 Bft) 95,74 %
14.09.2015 18:34 18,8 C 18,9 C 16,7 C 69 % 0 lf 1000,0 hPa 0,0 l/m 2 min 0 min 140 W/m 37,7 km/h (5 Bft) 97,87 %
14.09.2015 18:36 18,8 C 18,9 C 16,7 C 69 % 0 lf 1000,0 hPa 0,0 l/m 0 min 0 min 89 W/m 39,7 km/h (6 Bft) 97,87 %
14.09.2015 18:38 18,7 C 18,3 C 16,1 C 69 % 0 lf 1000,2 hPa 0,0 l/m 0 min 0 min 54 W/m 31,4 km/h (5 Bft) 93,02 %
14.09.2015 18:40 18,6 C 18,3 C 16,1 C 69 % 0 lf 1000,4 hPa 0,0 l/m 0 min 0 min 48 W/m 37,7 km/h (5 Bft) 96,00 %
14.09.2015 18:42 18,5 C 17,8 C 16,1 C 70 % 0 lf 1000,3 hPa 0,0 l/m 0 min 0 min 43 W/m 29,3 km/h (5 Bft) 93,75 %
14.09.2015 18:44 18,4 C 17,8 C 16,1 C 69 % 0 lf 1000,3 hPa 0,0 l/m 0 min 0 min 37 W/m 27,2 km/h (4 Bft) 91,30 %
14.09.2015 18:46 18,3 C 17,8 C 16,1 C 70 % 0 lf 1000,4 hPa 0,0 l/m 0 min 0 min 32 W/m 31,4 km/h (5 Bft) 93,62 %
14.09.2015 18:48 18,2 C 17,8 C 15,6 C 70 % 0 lf 1000,2 hPa 0,0 l/m 0 min 0 min 32 W/m 37,7 km/h (5 Bft) 95,74 %
14.09.2015 18:50 18,1 C 17,8 C 15,6 C 70 % 0 lf 1000,5 hPa 0,0 l/m 0 min 0 min 30 W/m 27,2 km/h (4 Bft) 93,33 %
14.09.2015 18:52 18,1 C 17,8 C 15,6 C 70 % 0 lf 1000,6 hPa 0,0 l/m 0 min 0 min 26 W/m 25,1 km/h (4 Bft) 95,92 %
14.09.2015 18:54 18,0 C 17,2 C 15,6 C 71 % 1 lf 1000,6 hPa 0,0 l/m 0 min 2 min 23 W/m 46,0 km/h (6 Bft) 95,74 %
14.09.2015 18:56 17,9 C 16,7 C 15,0 C 70 % 15 lf 1000,7 hPa 0,0 l/m 0 min 2 min 18 W/m 41,8 km/h (6 Bft) 91,30 %
14.09.2015 18:58 17,7 C 16,1 C 13,3 C 71 % 15 lf 1000,8 hPa 0,0 l/m 0 min 2 min 14 W/m 43,9 km/h (6 Bft) 96,30 %
14.09.2015 19:00 17,6 C 14,4 C 12,8 C 72 % 15 lf 1000,7 hPa 0,0 l/m 0 min 2 min 13 W/m 35,6 km/h (5 Bft) 95,00 %
14.09.2015 19:02 17,4 C 13,9 C 12,2 C 73 % 15 lf 1000,7 hPa 0,2 l/m 0 min 2 min 17 W/m 29,3 km/h (5 Bft) 96,00 %
14.09.2015 19:04 17,2 C 13,3 C 12,2 C 74 % 15 lf 1000,7 hPa 0,2 l/m 0 min 2 min 21 W/m 27,2 km/h (4 Bft) 95,74 %
14.09.2015 19:06 17,0 C 13,3 C 12,2 C 75 % 15 lf 1000,7 hPa 0,0 l/m 0 min 2 min 22 W/m 20,9 km/h (4 Bft) 93,48 %
14.09.2015 19:08 16,8 C 13,3 C 12,2 C 76 % 15 lf 1000,8 hPa 0,0 l/m 0 min 0 min 23 W/m 16,7 km/h (3 Bft) 93,62 %
14.09.2015 19:10 16,7 C 13,9 C 12,2 C 77 % 15 lf 1000,8 hPa 0,0 l/m 0 min 0 min 30 W/m 16,7 km/h (3 Bft) 95,45 %
14.09.2015 19:12 16,6 C 13,9 C 12,2 C 77 % 15 lf 1000,8 hPa 0,0 l/m 0 min 0 min 41 W/m 18,8 km/h (3 Bft) 95,83 %
14.09.2015 19:14 16,4 C 13,9 C 12,8 C 78 % 15 lf 1000,7 hPa 0,0 l/m 2 min 2 min 75 W/m 25,1 km/h (4 Bft) 95,83 %
14.09.2015 19:16 16,4 C 13,9 C 12,8 C 78 % 15 lf 1000,7 hPa 0,0 l/m 2 min 2 min 73 W/m 33,5 km/h (5 Bft) 95,83 %
14.09.2015 19:18 16,2 C 13,9 C 12,2 C 79 % 15 lf 1000,7 hPa 0,0 l/m 2 min 2 min 49 W/m 25,1 km/h (4 Bft) 95,65 %
14.09.2015 19:20 16,1 C 13,9 C 12,2 C 79 % 15 lf 1000,6 hPa 0,0 l/m 0 min 0 min 32 W/m 29,3 km/h (5 Bft) 97,73 %
14.09.2015 19:22 16,0 C 13,9 C 12,2 C 79 % 15 lf 1000,6 hPa 0,0 l/m 0 min 0 min 25 W/m 20,9 km/h (4 Bft) 97,96 %
14.09.2015 19:24 15,9 C 13,9 C 12,2 C 80 % 15 lf 1000,6 hPa 0,0 l/m 0 min 0 min 21 W/m 14,6 km/h (3 Bft) 95,74 %
14.09.2015 19:26 15,8 C 13,9 C 12,2 C 80 % 15 lf 1000,6 hPa 0,0 l/m 0 min 0 min 19 W/m 18,8 km/h (3 Bft) 97,92 %
14.09.2015 19:28 15,7 C 13,3 C 12,2 C 80 % 15 lf 1000,6 hPa 0,0 l/m 0 min 0 min 18 W/m 16,7 km/h (3 Bft) 100,00 %
14.09.2015 19:30 15,6 C 13,3 C 12,2 C 80 % 15 lf 1000,7 hPa 0,0 l/m 0 min 0 min 16 W/m 14,6 km/h (3 Bft) 97,96 %
14.09.2015 19:32 15,5 C 13,3 C 12,2 C 80 % 15 lf 1000,7 hPa 0,0 l/m 0 min 0 min 14 W/m 18,8 km/h (3 Bft) 100,00 %
14.09.2015 19:34 15,4 C 13,3 C 12,2 C 80 % 15 lf 1000,6 hPa 0,0 l/m 0 min 0 min 12 W/m 10,5 km/h (2 Bft) 95,74 %
14.09.2015 19:36 15,4 C 13,3 C 12,2 C 81 % 15 lf 1000,7 hPa 0,0 l/m 0 min 0 min 12 W/m 12,6 km/h (3 Bft) 100,00 %
14.09.2015 19:38 15,3 C 13,9 C 12,2 C 81 % 15 lf 1000,6 hPa 0,0 l/m 0 min 0 min 11 W/m 14,6 km/h (3 Bft) 96,30 %
14.09.2015 19:40 15,2 C 13,9 C 11,7 C 81 % 15 lf 1000,7 hPa 0,0 l/m 0 min 0 min 11 W/m 12,6 km/h (3 Bft) 98,04 %
14.09.2015 19:42 15,2 C 13,9 C 11,7 C 81 % 15 lf 1000,6 hPa 0,0 l/m 0 min 0 min 10 W/m 14,6 km/h (3 Bft) 100,00 %
14.09.2015 19:44 15,1 C 13,9 C 11,7 C 81 % 15 lf 1000,6 hPa 0,0 l/m 0 min 0 min 9 W/m 14,6 km/h (3 Bft) 94,55 %
14.09.2015 19:46 15,0 C 13,9 C 11,7 C 81 % 14 lf 1000,7 hPa 0,0 l/m 0 min 0 min 8 W/m 12,6 km/h (3 Bft) 97,37 %
14.09.2015 19:48 14,9 C 13,9 C 11,7 C 82 % 14 lf 1000,7 hPa 0,0 l/m 0 min 0 min 7 W/m 14,6 km/h (3 Bft) 95,74 %
14.09.2015 19:50 14,9 C 13,9 C 11,7 C 82 % 12 lf 1000,8 hPa 0,0 l/m 0 min 0 min 6 W/m 14,6 km/h (3 Bft) 96,43 %
14.09.2015 19:52 14,8 C 13,9 C 11,7 C 82 % 11 lf 1000,9 hPa 0,0 l/m 0 min 0 min 5 W/m 12,6 km/h (3 Bft) 95,83 %
14.09.2015 19:54 14,8 C 13,9 C 11,7 C 82 % 9 lf 1001,0 hPa 0,0 l/m 0 min 0 min 5 W/m 12,6 km/h (3 Bft) 97,92 %
14.09.2015 19:56 14,8 C 13,9 C 11,7 C 82 % 7 lf 1001,0 hPa 0,0 l/m 0 min 0 min 5 W/m 8,4 km/h (2 Bft) 100,00 %
14.09.2015 19:58 14,7 C 13,9 C 11,7 C 82 % 4 lf 1001,1 hPa 0,0 l/m 0 min 0 min 1 W/m 10,5 km/h (2 Bft) 91,49 %
14.09.2015 20:00 14,7 C 13,9 C 11,7 C 82 % 4 lf 1001,1 hPa 0,0 l/m 0 min 0 min 0 W/m 10,5 km/h (2 Bft) 95,45 %
14.09.2015 20:02 14,6 C 13,9 C 11,7 C 83 % 3 lf 1001,1 hPa 0,0 l/m 0 min 0 min 0 W/m 10,5 km/h (2 Bft) 98,00 %
14.09.2015 20:04 14,6 C 13,3 C 11,7 C 83 % 2 lf 1001,1 hPa 0,0 l/m 0 min 0 min 0 W/m 6,3 km/h (2 Bft) 91,43 %
14.09.2015 20:06 14,6 C 13,9 C 11,7 C 83 % 1 lf 1001,2 hPa 0,0 l/m 0 min 0 min 0 W/m 12,6 km/h (3 Bft) 97,87 %
14.09.2015 20:08 14,5 C 13,9 C 11,7 C 83 % 1 lf 1001,2 hPa 0,0 l/m 0 min 0 min 0 W/m 10,5 km/h (2 Bft) 95,65 %
14.09.2015 20:10 14,5 C 13,9 C 12,2 C 84 % 0 lf 1001,3 hPa 0,0 l/m 0 min 0 min 0 W/m 12,6 km/h (3 Bft) 98,18 %
14.09.2015 20:12 14,5 C 13,9 C 12,2 C 84 % 0 lf 1001,4 hPa 0,0 l/m 0 min 0 min 0 W/m 10,5 km/h (2 Bft) 100,00 %
14.09.2015 20:14 14,4 C 13,9 C 12,2 C 84 % 0 lf 1001,5 hPa 0,0 l/m 0 min 0 min 0 W/m 14,6 km/h (3 Bft) 100,00 %
14.09.2015 20:16 14,4 C 13,9 C 12,2 C 85 % 15 lf 1001,9 hPa 0,0 l/m 0 min 2 min 0 W/m 27,2 km/h (4 Bft) 97,92 %
14.09.2015 20:18 14,4 C 12,2 C 11,7 C 85 % 15 lf 1002,1 hPa 0,8 l/m 0 min 2 min 0 W/m 54,4 km/h (7 Bft) 94,29 %
14.09.2015 20:20 14,2 C 12,2 C 11,1 C 85 % 15 lf 1002,2 hPa 0,4 l/m 0 min 2 min 0 W/m 41,8 km/h (6 Bft) 98,25 %
14.09.2015 20:22 14,2 C 12,2 C 11,1 C 86 % 15 lf 1002,2 hPa 0,2 l/m 0 min 2 min 0 W/m 25,1 km/h (4 Bft) 97,30 %
14.09.2015 20:24 14,2 C 12,2 C 11,7 C 86 % 15 lf 1002,2 hPa 0,2 l/m 0 min 2 min 0 W/m 25,1 km/h (4 Bft) 96,30 %
14.09.2015 20:26 14,1 C 12,2 C 11,7 C 87 % 15 lf 1002,2 hPa 0,0 l/m 0 min 2 min 0 W/m 20,9 km/h (4 Bft) 97,87 %
14.09.2015 20:28 14,0 C 12,2 C 11,7 C 88 % 15 lf 1002,1 hPa 0,0 l/m 0 min 2 min 0 W/m 16,7 km/h (3 Bft) 97,92 %
14.09.2015 20:30 13,9 C 12,2 C 11,7 C 88 % 15 lf 1002,0 hPa 0,0 l/m 0 min 2 min 0 W/m 18,8 km/h (3 Bft) 98,00 %
14.09.2015 20:32 13,9 C 12,2 C 11,7 C 88 % 15 lf 1002,0 hPa 0,0 l/m 0 min 2 min 0 W/m 14,6 km/h (3 Bft) 97,87 %
14.09.2015 20:34 13,8 C 12,2 C 11,7 C 88 % 15 lf 1002,0 hPa 0,0 l/m 0 min 0 min 0 W/m 12,6 km/h (3 Bft) 97,14 %
14.09.2015 20:36 13,8 C 12,2 C 11,7 C 89 % 15 lf 1002,0 hPa 0,0 l/m 0 min 0 min 0 W/m 20,9 km/h (4 Bft) 97,87 %
14.09.2015 20:38 13,7 C 12,2 C 11,7 C 89 % 15 lf 1002,0 hPa 0,0 l/m 0 min 0 min 0 W/m 18,8 km/h (3 Bft) 97,87 %
14.09.2015 20:40 13,7 C 12,2 C 11,7 C 89 % 15 lf 1002,0 hPa 0,0 l/m 0 min 0 min 0 W/m 12,6 km/h (3 Bft) 94,55 %
14.09.2015 20:42 13,6 C 12,2 C 11,7 C 89 % 15 lf 1002,1 hPa 0,0 l/m 0 min 0 min 0 W/m 14,6 km/h (3 Bft) 97,92 %
14.09.2015 20:44 13,6 C 12,2 C 11,1 C 89 % 15 lf 1002,2 hPa 0,0 l/m 0 min 0 min 0 W/m 12,6 km/h (3 Bft) 97,92 %
14.09.2015 20:46 13,6 C 12,2 C 11,1 C 90 % 15 lf 1002,3 hPa 0,0 l/m 0 min 0 min 0 W/m 12,6 km/h (3 Bft) 95,83 %
14.09.2015 20:48 13,5 C 12,2 C 11,1 C 90 % 15 lf 1002,3 hPa 0,0 l/m 0 min 0 min 0 W/m 18,8 km/h (3 Bft) 97,87 %
14.09.2015 20:50 13,4 C 12,2 C 11,1 C 90 % 15 lf 1002,3 hPa 0,0 l/m 0 min 0 min 0 W/m 20,9 km/h (4 Bft) 100,00 %
14.09.2015 20:52 13,4 C 12,2 C 11,1 C 90 % 15 lf 1002,3 hPa 0,0 l/m 0 min 0 min 0 W/m 18,8 km/h (3 Bft) 94,34 %
14.09.2015 20:54 13,3 C 11,7 C 11,1 C 90 % 15 lf 1002,4 hPa 0,0 l/m 0 min 0 min 0 W/m 14,6 km/h (3 Bft) 97,92 %
14.09.2015 20:56 13,3 C 11,7 C 11,1 C 90 % 15 lf 1002,4 hPa 0,0 l/m 0 min 0 min 0 W/m 23,0 km/h (4 Bft) 95,83 %
14.09.2015 20:58 13,2 C 11,7 C 10,6 C 90 % 15 lf 1002,4 hPa 0,0 l/m 0 min 0 min 0 W/m 18,8 km/h (3 Bft) 97,92 %
14.09.2015 21:00 13,1 C 11,7 C 10,6 C 90 % 15 lf 1002,4 hPa 0,0 l/m 0 min 0 min 0 W/m 20,9 km/h (4 Bft) 97,96 %
14.09.2015 21:02 13,1 C 11,7 C 10,6 C 90 % 15 lf 1002,4 hPa 0,0 l/m 0 min 0 min 0 W/m 18,8 km/h (3 Bft) 97,14 %
14.09.2015 21:04 13,0 C 11,7 C 10,6 C 90 % 15 lf 1002,4 hPa 0,0 l/m 0 min 0 min 0 W/m 20,9 km/h (4 Bft) 97,87 %
14.09.2015 21:06 12,9 C 11,7 C 10,6 C 90 % 15 lf 1002,5 hPa 0,0 l/m 0 min 0 min 0 W/m 25,1 km/h (4 Bft) 97,83 %
14.09.2015 21:08 12,9 C 11,7 C 10,6 C 90 % 15 lf 1002,5 hPa 0,0 l/m 0 min 0 min 0 W/m 18,8 km/h (3 Bft) 98,15 %
14.09.2015 21:10 12,8 C 11,7 C 10,6 C 90 % 15 lf 1002,5 hPa 0,0 l/m 0 min 0 min 0 W/m 18,8 km/h (3 Bft) 98,00 %
14.09.2015 21:12 12,8 C 11,7 C 10,6 C 90 % 15 lf 1002,5 hPa 0,0 l/m 0 min 0 min 0 W/m 18,8 km/h (3 Bft) 97,96 %
14.09.2015 21:14 12,7 C 11,7 C 10,6 C 90 % 15 lf 1002,5 hPa 0,0 l/m 0 min 0 min 0 W/m 23,0 km/h (4 Bft) 100,00 %
14.09.2015 21:16 12,7 C 11,7 C 10,6 C 90 % 15 lf 1002,6 hPa 0,0 l/m 0 min 0 min 0 W/m 14,6 km/h (3 Bft) 100,00 %
14.09.2015 21:18 12,6 C 11,7 C 10,6 C 90 % 15 lf 1002,5 hPa 0,0 l/m 0 min 0 min 0 W/m 25,1 km/h (4 Bft) 97,87 %
14.09.2015 21:20 12,6 C 11,7 C 10,6 C 90 % 15 lf 1002,6 hPa 0,0 l/m 0 min 0 min 0 W/m 16,7 km/h (3 Bft) 97,87 %
14.09.2015 21:22 12,6 C 11,7 C 10,0 C 90 % 15 lf 1002,6 hPa 0,0 l/m 0 min 0 min 0 W/m 16,7 km/h (3 Bft) 97,87 %
14.09.2015 21:24 12,5 C 11,1 C 10,6 C 90 % 15 lf 1002,7 hPa 0,0 l/m 0 min 0 min 0 W/m 18,8 km/h (3 Bft) 96,23 %
14.09.2015 21:26 12,4 C 11,1 C 10,0 C 90 % 15 lf 1002,7 hPa 0,0 l/m 0 min 0 min 0 W/m 8,4 km/h (2 Bft) 100,00 %
14.09.2015 21:28 12,4 C 11,1 C 10,0 C 90 % 15 lf 1002,7 hPa 0,0 l/m 0 min 0 min 0 W/m 16,7 km/h (3 Bft) 97,92 %
14.09.2015 21:30 12,4 C 11,1 C 10,0 C 90 % 15 lf 1002,7 hPa 0,0 l/m 0 min 0 min 0 W/m 14,6 km/h (3 Bft) 97,37 %
14.09.2015 21:32 12,3 C 11,1 C 10,0 C 90 % 15 lf 1002,7 hPa 0,0 l/m 0 min 0 min 0 W/m 20,9 km/h (4 Bft) 97,87 %
14.09.2015 21:34 12,3 C 11,1 C 10,0 C 90 % 15 lf 1002,7 hPa 0,0 l/m 0 min 0 min 0 W/m 14,6 km/h (3 Bft) 97,87 %
14.09.2015 21:36 12,3 C 11,1 C 10,0 C 90 % 15 lf 1002,6 hPa 0,0 l/m 0 min 0 min 0 W/m 12,6 km/h (3 Bft) 95,74 %
14.09.2015 21:38 12,2 C 11,1 C 10,0 C 90 % 15 lf 1002,6 hPa 0,0 l/m 0 min 0 min 0 W/m 12,6 km/h (3 Bft) 93,62 %
14.09.2015 21:40 12,2 C 11,1 C 10,0 C 90 % 15 lf 1002,7 hPa 0,0 l/m 0 min 0 min 0 W/m 23,0 km/h (4 Bft) 93,48 %
14.09.2015 21:42 12,2 C 11,1 C 10,0 C 90 % 15 lf 1002,7 hPa 0,0 l/m 0 min 0 min 0 W/m 14,6 km/h (3 Bft) 93,62 %
14.09.2015 21:44 12,2 C 11,1 C 10,0 C 90 % 15 lf 1002,7 hPa 0,0 l/m 0 min 0 min 0 W/m 20,9 km/h (4 Bft) 93,62 %
14.09.2015 21:46 12,1 C 11,1 C 10,0 C 90 % 15 lf 1002,7 hPa 0,0 l/m 0 min 0 min 0 W/m 20,9 km/h (4 Bft) 93,62 %
14.09.2015 21:48 12,1 C 11,1 C 10,0 C 90 % 15 lf 1002,7 hPa 0,0 l/m 0 min 0 min 0 W/m 14,6 km/h (3 Bft) 94,34 %
14.09.2015 21:50 12,1 C 11,1 C 10,0 C 90 % 15 lf 1002,7 hPa 0,0 l/m 0 min 0 min 0 W/m 16,7 km/h (3 Bft) 96,00 %
14.09.2015 21:52 12,1 C 11,1 C 10,0 C 90 % 15 lf 1002,7 hPa 0,0 l/m 0 min 0 min 0 W/m 16,7 km/h (3 Bft) 95,83 %
14.09.2015 21:54 12,1 C 11,1 C 10,0 C 91 % 15 lf 1002,8 hPa 0,0 l/m 0 min 0 min 0 W/m 14,6 km/h (3 Bft) 91,67 %
14.09.2015 21:56 12,0 C 11,1 C 10,0 C 91 % 15 lf 1002,8 hPa 0,0 l/m 0 min 0 min 0 W/m 14,6 km/h (3 Bft) 91,49 %
14.09.2015 21:58 12,0 C 11,1 C 10,0 C 91 % 15 lf 1002,7 hPa 0,0 l/m 0 min 0 min 0 W/m 14,6 km/h (3 Bft) 95,74 %
14.09.2015 22:00 12,0 C 11,1 C 10,0 C 91 % 15 lf 1002,9 hPa 0,0 l/m 0 min 0 min 0 W/m 14,6 km/h (3 Bft) 97,87 %
14.09.2015 22:02 12,0 C 11,1 C 10,0 C 91 % 15 lf 1002,8 hPa 0,0 l/m 0 min 0 min 0 W/m 18,8 km/h (3 Bft) 91,49 %
14.09.2015 22:04 11,9 C 11,1 C 10,0 C 91 % 15 lf 1002,8 hPa 0,0 l/m 0 min 0 min 0 W/m 14,6 km/h (3 Bft) 98,11 %
14.09.2015 22:06 11,9 C 11,1 C 10,0 C 91 % 15 lf 1002,8 hPa 0,0 l/m 0 min 0 min 0 W/m 16,7 km/h (3 Bft) 97,92 %
14.09.2015 22:08 11,9 C 11,1 C 10,0 C 91 % 15 lf 1002,9 hPa 0,0 l/m 0 min 0 min 0 W/m 14,6 km/h (3 Bft) 95,83 %
14.09.2015 22:10 11,9 C 11,1 C 10,0 C 91 % 15 lf 1003,0 hPa 0,0 l/m 0 min 0 min 0 W/m 16,7 km/h (3 Bft) 97,37 %
14.09.2015 22:12 11,9 C 11,1 C 10,0 C 91 % 15 lf 1003,0 hPa 0,0 l/m 0 min 0 min 0 W/m 23,0 km/h (4 Bft) 97,87 %
14.09.2015 22:14 11,9 C 11,7 C 10,0 C 90 % 15 lf 1003,0 hPa 0,0 l/m 0 min 0 min 0 W/m 25,1 km/h (4 Bft) 95,74 %
14.09.2015 22:16 11,9 C 11,1 C 10,0 C 90 % 15 lf 1003,0 hPa 0,0 l/m 0 min 0 min 0 W/m 23,0 km/h (4 Bft) 93,48 %
14.09.2015 22:18 11,9 C 11,7 C 10,0 C 90 % 15 lf 1003,1 hPa 0,0 l/m 0 min 0 min 0 W/m 18,8 km/h (3 Bft) 92,73 %
14.09.2015 22:20 11,9 C 11,1 C 10,0 C 90 % 15 lf 1003,1 hPa 0,0 l/m 0 min 0 min 0 W/m 23,0 km/h (4 Bft) 92,31 %
14.09.2015 22:22 12,0 C 11,7 C 10,0 C 90 % 15 lf 1003,0 hPa 0,0 l/m 0 min 0 min 0 W/m 23,0 km/h (4 Bft) 96,30 %
14.09.2015 22:24 12,0 C 11,7 C 10,0 C 90 % 15 lf 1003,1 hPa 0,0 l/m 0 min 0 min 0 W/m 18,8 km/h (3 Bft) 93,75 %
14.09.2015 22:26 12,0 C 11,7 C 10,0 C 89 % 15 lf 1003,1 hPa 0,0 l/m 0 min 0 min 0 W/m 18,8 km/h (3 Bft) 95,83 %
14.09.2015 22:28 12,1 C 11,7 C 10,0 C 89 % 15 lf 1003,1 hPa 0,0 l/m 0 min 0 min 0 W/m 23,0 km/h (4 Bft) 97,92 %
14.09.2015 22:30 12,1 C 11,7 C 10,0 C 89 % 15 lf 1003,3 hPa 0,0 l/m 0 min 0 min 0 W/m 20,9 km/h (4 Bft) 97,22 %
14.09.2015 22:32 12,1 C 11,7 C 10,0 C 89 % 14 lf 1003,3 hPa 0,0 l/m 0 min 0 min 0 W/m 31,4 km/h (5 Bft) 95,74 %
14.09.2015 22:34 12,1 C 11,7 C 10,0 C 89 % 13 lf 1003,3 hPa 0,0 l/m 0 min 0 min 0 W/m 31,4 km/h (5 Bft) 96,36 %
14.09.2015 22:36 12,1 C 11,7 C 10,0 C 88 % 11 lf 1003,4 hPa 0,0 l/m 0 min 0 min 0 W/m 25,1 km/h (4 Bft) 95,74 %
14.09.2015 22:38 12,2 C 11,7 C 10,0 C 88 % 9 lf 1003,4 hPa 0,0 l/m 0 min 0 min 0 W/m 35,6 km/h (5 Bft) 97,92 %
14.09.2015 22:40 12,2 C 11,7 C 10,0 C 88 % 5 lf 1003,5 hPa 0,0 l/m 0 min 0 min 0 W/m 35,6 km/h (5 Bft) 97,30 %
14.09.2015 22:42 12,2 C 11,7 C 10,0 C 87 % 3 lf 1003,5 hPa 0,0 l/m 0 min 0 min 0 W/m 35,6 km/h (5 Bft) 95,74 %
14.09.2015 22:44 12,3 C 11,7 C 10,0 C 87 % 2 lf 1003,6 hPa 0,0 l/m 0 min 0 min 0 W/m 25,1 km/h (4 Bft) 97,87 %
14.09.2015 22:46 12,3 C 11,7 C 10,0 C 86 % 1 lf 1003,6 hPa 0,0 l/m 0 min 0 min 0 W/m 43,9 km/h (6 Bft) 97,87 %
14.09.2015 22:48 12,3 C 11,7 C 10,0 C 86 % 0 lf 1003,7 hPa 0,0 l/m 0 min 0 min 0 W/m 29,3 km/h (5 Bft) 95,74 %
14.09.2015 22:50 12,4 C 11,7 C 10,0 C 86 % 0 lf 1003,7 hPa 0,0 l/m 0 min 0 min 0 W/m 39,7 km/h (6 Bft) 97,83 %
14.09.2015 22:52 12,4 C 11,7 C 10,0 C 85 % 0 lf 1003,8 hPa 0,0 l/m 0 min 0 min 0 W/m 35,6 km/h (5 Bft) 95,83 %
14.09.2015 22:54 12,4 C 11,7 C 10,0 C 84 % 0 lf 1003,6 hPa 0,0 l/m 0 min 0 min 0 W/m 33,5 km/h (5 Bft) 95,83 %
14.09.2015 22:56 12,5 C 11,7 C 10,0 C 84 % 0 lf 1003,6 hPa 0,0 l/m 0 min 0 min 0 W/m 27,2 km/h (4 Bft) 97,92 %
14.09.2015 22:58 12,5 C 11,7 C 10,0 C 84 % 0 lf 1003,7 hPa 0,0 l/m 0 min 0 min 0 W/m 27,2 km/h (4 Bft) 95,83 %
14.09.2015 23:00 12,5 C 11,7 C 10,0 C 84 % 0 lf 1003,6 hPa 0,0 l/m 0 min 0 min 0 W/m 25,1 km/h (4 Bft) 95,83 %
14.09.2015 23:02 12,5 C 11,7 C 10,0 C 84 % 0 lf 1003,6 hPa 0,0 l/m 0 min 0 min 0 W/m 29,3 km/h (5 Bft) 100,00 %
14.09.2015 23:04 12,5 C 11,7 C 10,0 C 84 % 0 lf 1003,5 hPa 0,0 l/m 0 min 0 min 0 W/m 16,7 km/h (3 Bft) 92,16 %
14.09.2015 23:06 12,6 C 11,7 C 10,0 C 84 % 0 lf 1003,4 hPa 0,0 l/m 0 min 0 min 0 W/m 20,9 km/h (4 Bft) 93,62 %
14.09.2015 23:08 12,5 C 11,7 C 10,0 C 84 % 0 lf 1003,5 hPa 0,0 l/m 0 min 0 min 0 W/m 23,0 km/h (4 Bft) 97,87 %
14.09.2015 23:10 12,5 C 11,7 C 10,0 C 84 % 0 lf 1003,4 hPa 0,0 l/m 0 min 0 min 0 W/m 16,7 km/h (3 Bft) 90,91 %
14.09.2015 23:12 12,5 C 11,7 C 10,0 C 84 % 0 lf 1003,4 hPa 0,0 l/m 0 min 0 min 0 W/m 23,0 km/h (4 Bft) 95,74 %
14.09.2015 23:14 12,5 C 11,7 C 10,0 C 83 % 0 lf 1003,6 hPa 0,0 l/m 0 min 0 min 0 W/m 14,6 km/h (3 Bft) 93,75 %
14.09.2015 23:16 12,4 C 11,7 C 10,0 C 83 % 0 lf 1003,6 hPa 0,0 l/m 0 min 0 min 0 W/m 16,7 km/h (3 Bft) 91,67 %
14.09.2015 23:18 12,4 C 11,7 C 10,0 C 83 % 0 lf 1003,6 hPa 0,0 l/m 0 min 0 min 0 W/m 25,1 km/h (4 Bft) 93,62 %
14.09.2015 23:20 12,4 C 11,7 C 10,0 C 83 % 0 lf 1003,7 hPa 0,0 l/m 0 min 0 min 0 W/m 14,6 km/h (3 Bft) 93,62 %
14.09.2015 23:22 12,4 C 11,1 C 10,0 C 83 % 0 lf 1003,7 hPa 0,0 l/m 0 min 0 min 0 W/m 16,7 km/h (3 Bft) 93,62 %
14.09.2015 23:24 12,4 C 11,1 C 9,4 C 83 % 0 lf 1003,6 hPa 0,0 l/m 0 min 0 min 0 W/m 18,8 km/h (3 Bft) 94,29 %
14.09.2015 23:26 12,4 C 11,1 C 9,4 C 83 % 0 lf 1003,7 hPa 0,0 l/m 0 min 0 min 0 W/m 33,5 km/h (5 Bft) 94,44 %
14.09.2015 23:28 12,4 C 11,1 C 9,4 C 82 % 0 lf 1003,8 hPa 0,0 l/m 0 min 0 min 0 W/m 23,0 km/h (4 Bft) 83,67 %
14.09.2015 23:30 12,4 C 11,1 C 9,4 C 82 % 0 lf 1003,8 hPa 0,0 l/m 0 min 0 min 0 W/m 25,1 km/h (4 Bft) 91,84 %
14.09.2015 23:32 12,3 C 11,7 C 9,4 C 82 % 0 lf 1003,8 hPa 0,0 l/m 0 min 0 min 0 W/m 25,1 km/h (4 Bft) 93,62 %
14.09.2015 23:34 12,3 C 12,2 C 9,4 C 82 % 0 lf 1003,9 hPa 0,0 l/m 0 min 0 min 0 W/m 27,2 km/h (4 Bft) 97,14 %
14.09.2015 23:36 12,3 C 12,2 C 9,4 C 82 % 0 lf 1003,8 hPa 0,0 l/m 0 min 0 min 0 W/m 20,9 km/h (4 Bft) 94,55 %
14.09.2015 23:38 12,3 C 12,8 C 9,4 C 82 % 0 lf 1003,8 hPa 0,0 l/m 0 min 0 min 0 W/m 35,6 km/h (5 Bft) 96,00 %
14.09.2015 23:40 12,3 C 12,8 C 9,4 C 81 % 0 lf 1003,9 hPa 0,0 l/m 0 min 0 min 0 W/m 29,3 km/h (5 Bft) 95,74 %
14.09.2015 23:42 12,3 C 12,2 C 9,4 C 81 % 0 lf 1003,9 hPa 0,0 l/m 0 min 0 min 0 W/m 14,6 km/h (3 Bft) 95,35 %
14.09.2015 23:44 12,4 C 12,2 C 9,4 C 81 % 0 lf 1004,0 hPa 0,0 l/m 0 min 0 min 0 W/m 23,0 km/h (4 Bft) 93,88 %
14.09.2015 23:46 12,3 C 12,2 C 9,4 C 81 % 0 lf 1003,9 hPa 0,0 l/m 0 min 0 min 0 W/m 23,0 km/h (4 Bft) 93,75 %
14.09.2015 23:48 12,3 C 12,2 C 9,4 C 81 % 0 lf 1004,0 hPa 0,0 l/m 0 min 0 min 0 W/m 20,9 km/h (4 Bft) 95,74 %
14.09.2015 23:50 12,3 C 12,2 C 9,4 C 81 % 0 lf 1004,0 hPa 0,0 l/m 0 min 0 min 0 W/m 20,9 km/h (4 Bft) 97,73 %
14.09.2015 23:52 12,3 C 12,2 C 9,4 C 81 % 0 lf 1004,0 hPa 0,0 l/m 0 min 0 min 0 W/m 25,1 km/h (4 Bft) 100,00 %
14.09.2015 23:54 12,3 C 12,2 C 9,4 C 81 % 0 lf 1004,0 hPa 0,0 l/m 0 min 0 min 0 W/m 29,3 km/h (5 Bft) 97,87 %
14.09.2015 23:56 12,3 C 12,2 C 9,4 C 81 % 0 lf 1004,0 hPa 0,0 l/m 0 min 0 min 0 W/m 31,4 km/h (5 Bft) 97,87 %
14.09.2015 23:58 12,3 C 12,2 C 9,4 C 81 % 0 lf 1004,1 hPa 0,0 l/m 0 min 0 min 0 W/m 31,4 km/h (5 Bft) 97,83 %
_ Min-Zeit 22:04 21:24 23:24 14:28 00:00 15:44 - - - - 02:12 23:28
Minimum _ 11,9 C 11,1 C 9,4 C 63 % 0 lf 998,6 hPa - - - - 4,2 km/h (1 Bft) 83,67 %
_ Max-Zeit 14:24 14:02 11:02 07:54 00:58 23:58 04:24 09:50 00:16 12:52 16:42 00:12
Maximum _ 22,1 C 28,9 C 21,7 C 99 % 15 lf 1004,1 hPa 1,2 l/m 2 min 2 min 860 W/m 58,6 km/h
W-SW (7 Bft)
100,00 %
Durchschnitt _ 16,9 C 17,7 C 15,1 C 87 % 9 lf 1000,7 hPa #11,4 l/m #6:14 h #6:33 h 296 W/m 18,9 km/h (3 Bft) 96,30 %
© 2015 W. Hausmann